Time,TemperatureF,DewpointF,PressureIn,WindDirection,WindDirectionDegrees,WindSpeedMPH,WindSpeedGustMPH,Humidity,HourlyPrecipIn,Conditions,Clouds,dailyrainin,SoftwareType,DateUTC
2013-03-15 00:00:00,9.7,-1.0,29.93,North,355,8.0,19.0,61,0.00,,---,0.00,VWS V14.01,2013-03-15 08:00:00,
2013-03-15 00:02:00,9.6,-1.1,29.93,NNW,340,17.0,17.0,61,0.00,,---,0.00,VWS V14.01,2013-03-15 08:02:00,
2013-03-15 00:04:00,9.5,-1.6,29.93,NNW,340,12.0,17.0,60,0.00,,---,0.00,VWS V14.01,2013-03-15 08:04:00,
2013-03-15 00:05:00,9.5,-1.6,29.93,NNE,26,12.0,17.0,60,0.00,,---,0.00,VWS V14.01,2013-03-15 08:05:00,
2013-03-15 00:07:00,9.2,-1.9,29.92,North,5,12.0,17.0,60,0.00,,---,0.00,VWS V14.01,2013-03-15 08:07:00,
2013-03-15 00:09:00,9.0,-1.7,29.92,North,360,14.0,17.0,61,0.00,,---,0.00,VWS V14.01,2013-03-15 08:09:00,
2013-03-15 00:10:00,8.9,-1.8,29.92,North,360,11.0,17.0,61,0.00,,---,0.00,VWS V14.01,2013-03-15 08:10:00,
2013-03-15 00:12:00,8.8,-1.9,29.92,North,355,15.0,15.0,61,0.00,,---,0.00,VWS V14.01,2013-03-15 08:12:00,
2013-03-15 00:15:00,8.7,-2.0,29.92,North,9,12.0,17.0,61,0.00,,---,0.00,VWS V14.01,2013-03-15 08:15:00,
2013-03-15 00:16:00,8.7,-2.0,29.92,NNW,344,13.0,17.0,61,0.00,,---,0.00,VWS V14.01,2013-03-15 08:16:00,
2013-03-15 00:17:00,8.6,-1.7,29.92,North,5,11.0,11.0,62,0.00,,---,0.00,VWS V14.01,2013-03-15 08:17:00,
2013-03-15 00:20:00,8.7,-4.5,29.93,NNE,19,5.0,11.0,54,0.00,,---,0.00,VWS V14.01,2013-03-15 08:20:00,
2013-03-15 00:22:00,9.0,-4.2,29.93,NW,320,6.0,6.0,54,0.00,,---,0.00,VWS V14.01,2013-03-15 08:22:00,
2013-03-15 00:23:00,9.1,-4.2,29.93,North,355,6.0,14.0,54,0.00,,---,0.00,VWS V14.01,2013-03-15 08:23:00,
2013-03-15 00:25:00,9.3,-4.4,29.93,NNW,342,7.0,14.0,53,0.00,,---,0.00,VWS V14.01,2013-03-15 08:25:00,
2013-03-15 00:26:00,9.4,-4.3,29.93,NNW,344,4.0,14.0,53,0.00,,---,0.00,VWS V14.01,2013-03-15 08:26:00,
2013-03-15 00:27:00,9.5,-4.2,29.94,NNW,341,5.0,10.0,53,0.00,,---,0.00,VWS V14.01,2013-03-15 08:27:00,
2013-03-15 00:28:00,9.5,-4.2,29.94,NNW,346,5.0,10.0,53,0.00,,---,0.00,VWS V14.01,2013-03-15 08:28:00,
2013-03-15 00:30:00,9.1,-4.6,29.94,WNW,300,4.0,10.0,53,0.00,,---,0.00,VWS V14.01,2013-03-15 08:30:00,
2013-03-15 00:31:00,9.0,-4.6,29.94,NW,318,11.0,12.0,53,0.00,,---,0.00,VWS V14.01,2013-03-15 08:31:00,
2013-03-15 00:32:00,8.8,-4.4,29.94,NNW,335,2.0,9.0,54,0.00,,---,0.00,VWS V14.01,2013-03-15 08:32:00,
2013-03-15 00:33:00,8.8,-4.4,29.94,NW,311,3.0,9.0,54,0.00,,---,0.00,VWS V14.01,2013-03-15 08:33:00,
2013-03-15 00:35:00,8.8,-4.4,29.93,NNW,330,6.0,11.0,54,0.00,,---,0.00,VWS V14.01,2013-03-15 08:35:00,
2013-03-15 00:36:00,9.0,-4.2,29.94,NNW,340,7.0,11.0,54,0.00,,---,0.00,VWS V14.01,2013-03-15 08:36:00,
2013-03-15 00:38:00,9.1,-4.2,29.94,NNE,14,11.0,12.0,54,0.00,,---,0.00,VWS V14.01,2013-03-15 08:38:00,
2013-03-15 00:40:00,9.3,-4.4,29.93,NW,319,3.0,12.0,53,0.00,,---,0.00,VWS V14.01,2013-03-15 08:40:00,
2013-03-15 00:41:00,9.4,-4.3,29.94,NW,325,5.0,12.0,53,0.00,,---,0.00,VWS V14.01,2013-03-15 08:41:00,
2013-03-15 00:43:00,9.5,-4.6,29.94,North,355,6.0,10.0,52,0.00,,---,0.00,VWS V14.01,2013-03-15 08:43:00,
2013-03-15 00:46:00,9.5,-2.7,29.94,WNW,289,3.0,10.0,57,0.00,,---,0.00,VWS V14.01,2013-03-15 08:46:00,
2013-03-15 00:48:00,9.4,-2.4,29.94,NNW,342,14.0,18.0,58,0.00,,---,0.00,VWS V14.01,2013-03-15 08:48:00,
2013-03-15 00:49:00,9.3,-2.5,29.93,North,355,11.0,18.0,58,0.00,,---,0.00,VWS V14.01,2013-03-15 08:49:00,
2013-03-15 00:51:00,9.2,-2.2,29.93,NNW,340,14.0,21.0,59,0.00,,---,0.00,VWS V14.01,2013-03-15 08:51:00,
2013-03-15 00:52:00,9.2,-2.2,29.93,NNW,346,12.0,12.0,59,0.00,,---,0.00,VWS V14.01,2013-03-15 08:52:00,
2013-03-15 00:53:00,9.2,-2.2,29.93,North,350,13.0,17.0,59,0.00,,---,0.00,VWS V14.01,2013-03-15 08:53:00,
2013-03-15 00:54:00,9.3,-1.8,29.92,North,349,13.0,17.0,60,0.00,,---,0.00,VWS V14.01,2013-03-15 08:54:00,
2013-03-15 00:56:00,9.3,-1.8,29.92,North,5,15.0,21.0,60,0.00,,---,0.00,VWS V14.01,2013-03-15 08:56:00,
2013-03-15 00:57:00,9.2,-1.9,29.93,North,350,15.0,15.0,60,0.00,,---,0.00,VWS V14.01,2013-03-15 08:57:00,
2013-03-15 00:58:00,9.2,-1.9,29.93,North,355,15.0,17.0,60,0.00,,---,0.00,VWS V14.01,2013-03-15 08:58:00,
2013-03-15 00:59:00,9.3,-1.8,29.93,NNW,344,13.0,17.0,60,0.00,,---,0.00,VWS V14.01,2013-03-15 08:59:00,
2013-03-15 01:01:00,9.3,-1.8,29.93,North,355,14.0,20.0,60,0.00,,---,0.00,VWS V14.01,2013-03-15 09:01:00,
2013-03-15 01:02:00,9.4,-1.7,29.93,NNW,340,13.0,17.0,60,0.00,,---,0.00,VWS V14.01,2013-03-15 09:02:00,
2013-03-15 01:03:00,9.4,-1.7,29.93,North,360,15.0,22.0,60,0.00,,---,0.00,VWS V14.01,2013-03-15 09:03:00,
2013-03-15 01:04:00,9.4,-1.7,29.93,North,355,12.0,22.0,60,0.00,,---,0.00,VWS V14.01,2013-03-15 09:04:00,
2013-03-15 01:06:00,9.4,-1.3,29.93,NNW,338,13.0,22.0,61,0.00,,---,0.00,VWS V14.01,2013-03-15 09:06:00,
2013-03-15 01:07:00,9.4,-1.3,29.93,NNW,337,11.0,22.0,61,0.00,,---,0.00,VWS V14.01,2013-03-15 09:07:00,
2013-03-15 01:08:00,9.4,-1.7,29.93,North,355,13.0,22.0,60,0.00,,---,0.00,VWS V14.01,2013-03-15 09:08:00,
2013-03-15 01:09:00,9.5,-1.6,29.94,NNW,333,12.0,22.0,60,0.00,,---,0.00,VWS V14.01,2013-03-15 09:09:00,
2013-03-15 01:11:00,9.4,-2.0,29.94,NNW,335,7.0,22.0,59,0.00,,---,0.00,VWS V14.01,2013-03-15 09:11:00,
2013-03-15 01:12:00,9.4,-2.0,29.94,North,351,7.0,17.0,59,0.00,,---,0.00,VWS V14.01,2013-03-15 09:12:00,
2013-03-15 01:13:00,9.3,-2.1,29.93,NNW,348,8.0,17.0,59,0.00,,---,0.00,VWS V14.01,2013-03-15 09:13:00,
2013-03-15 01:15:00,9.3,-2.1,29.93,NNW,342,20.0,20.0,59,0.00,,---,0.00,VWS V14.01,2013-03-15 09:15:00,
2013-03-15 01:17:00,9.2,-2.2,29.93,NNW,338,7.0,9.0,59,0.00,,---,0.00,VWS V14.01,2013-03-15 09:17:00,
2013-03-15 01:18:00,9.2,-2.2,29.93,NNW,347,12.0,15.0,59,0.00,,---,0.00,VWS V14.01,2013-03-15 09:18:00,
2013-03-15 01:20:00,9.1,-2.3,29.92,North,355,12.0,18.0,59,0.00,,---,0.00,VWS V14.01,2013-03-15 09:20:00,
2013-03-15 01:22:00,9.0,-2.0,29.92,North,9,18.0,19.0,60,0.00,,---,0.00,VWS V14.01,2013-03-15 09:22:00,
2013-03-15 01:23:00,8.9,-1.8,29.92,North,360,14.0,19.0,61,0.00,,---,0.00,VWS V14.01,2013-03-15 09:23:00,
2013-03-15 01:25:00,8.9,-1.8,29.92,North,360,18.0,19.0,61,0.00,,---,0.00,VWS V14.01,2013-03-15 09:25:00,
2013-03-15 01:27:00,8.7,-1.6,29.92,North,360,14.0,18.0,62,0.00,,---,0.00,VWS V14.01,2013-03-15 09:27:00,
2013-03-15 01:28:00,8.7,-1.6,29.92,North,355,18.0,20.0,62,0.00,,---,0.00,VWS V14.01,2013-03-15 09:28:00,
2013-03-15 01:29:00,8.7,-1.6,29.92,North,360,11.0,20.0,62,0.00,,---,0.00,VWS V14.01,2013-03-15 09:29:00,
2013-03-15 01:30:00,8.6,-1.7,29.92,NNW,348,9.0,20.0,62,0.00,,---,0.00,VWS V14.01,2013-03-15 09:30:00,
2013-03-15 01:32:00,8.6,-1.7,29.92,NNW,346,15.0,17.0,62,0.00,,---,0.00,VWS V14.01,2013-03-15 09:32:00,
2013-03-15 01:34:00,8.5,-2.2,29.92,NW,321,13.0,17.0,61,0.00,,---,0.00,VWS V14.01,2013-03-15 09:34:00,
2013-03-15 01:35:00,8.4,-2.3,29.92,NNW,341,9.0,17.0,61,0.00,,---,0.00,VWS V14.01,2013-03-15 09:35:00,
2013-03-15 01:37:00,8.3,-2.4,29.93,NNW,347,9.0,12.0,61,0.00,,---,0.00,VWS V14.01,2013-03-15 09:37:00,
2013-03-15 01:39:00,8.4,-2.3,29.93,WNW,294,2.0,12.0,61,0.00,,---,0.00,VWS V14.01,2013-03-15 09:39:00,
2013-03-15 01:40:00,8.5,-2.2,29.93,NW,309,2.0,12.0,61,0.00,,---,0.00,VWS V14.01,2013-03-15 09:40:00,
2013-03-15 01:43:00,8.5,-2.5,29.93,NW,315,1.0,12.0,60,0.00,,---,0.00,VWS V14.01,2013-03-15 09:43:00,
2013-03-15 01:44:00,8.5,-2.5,29.93,NW,315,2.0,12.0,60,0.00,,---,0.00,VWS V14.01,2013-03-15 09:44:00,
2013-03-15 01:45:00,8.5,-2.2,29.93,NNW,337,0.0,12.0,61,0.00,,---,0.00,VWS V14.01,2013-03-15 09:45:00,
2013-03-15 01:48:00,8.5,-2.5,29.93,NW,306,6.0,13.0,60,0.00,,---,0.00,VWS V14.01,2013-03-15 09:48:00,
2013-03-15 01:49:00,8.5,-2.5,29.93,West,263,7.0,13.0,60,0.00,,---,0.00,VWS V14.01,2013-03-15 09:49:00,
2013-03-15 01:50:00,8.5,-2.5,29.93,WNW,294,5.0,13.0,60,0.00,,---,0.00,VWS V14.01,2013-03-15 09:50:00,
2013-03-15 01:53:00,8.4,-2.6,29.93,NW,313,4.0,10.0,60,0.00,,---,0.00,VWS V14.01,2013-03-15 09:53:00,
2013-03-15 01:54:00,8.4,-2.6,29.93,WNW,296,9.0,10.0,60,0.00,,---,0.00,VWS V14.01,2013-03-15 09:54:00,
2013-03-15 01:55:00,8.4,-2.6,29.93,WNW,288,7.0,11.0,60,0.00,,---,0.00,VWS V14.01,2013-03-15 09:55:00,
2013-03-15 01:56:00,8.4,-2.6,29.93,WNW,294,7.0,11.0,60,0.00,,---,0.00,VWS V14.01,2013-03-15 09:56:00,
2013-03-15 01:58:00,8.4,-2.6,29.92,West,261,3.0,10.0,60,0.00,,---,0.00,VWS V14.01,2013-03-15 09:58:00,
2013-03-15 01:59:00,8.4,-2.6,29.92,WNW,291,8.0,12.0,60,0.00,,---,0.00,VWS V14.01,2013-03-15 09:59:00,
2013-03-15 02:00:00,8.4,-2.6,29.92,WNW,284,8.0,12.0,60,0.00,,---,0.00,VWS V14.01,2013-03-15 10:00:00,
2013-03-15 02:01:00,8.3,-2.7,29.92,WNW,286,4.0,12.0,60,0.00,,---,0.00,VWS V14.01,2013-03-15 10:01:00,
2013-03-15 02:04:00,8.1,-2.9,29.92,West,271,4.0,12.0,60,0.00,,---,0.00,VWS V14.01,2013-03-15 10:04:00,
2013-03-15 02:05:00,7.9,-3.1,29.92,West,269,8.0,12.0,60,0.00,,---,0.00,VWS V14.01,2013-03-15 10:05:00,
2013-03-15 02:06:00,7.8,-3.2,29.92,West,281,9.0,12.0,60,0.00,,---,0.00,VWS V14.01,2013-03-15 10:06:00,
2013-03-15 02:09:00,7.7,-2.9,29.92,WSW,250,5.0,12.0,61,0.00,,---,0.00,VWS V14.01,2013-03-15 10:09:00,
2013-03-15 02:10:00,7.7,-2.9,29.92,NNW,330,6.0,12.0,61,0.00,,---,0.00,VWS V14.01,2013-03-15 10:10:00,
2013-03-15 02:11:00,7.7,-2.9,29.92,NW,309,3.0,12.0,61,0.00,,---,0.00,VWS V14.01,2013-03-15 10:11:00,
2013-03-15 02:14:00,7.8,-2.8,29.91,NNW,348,9.0,12.0,61,0.00,,---,0.00,VWS V14.01,2013-03-15 10:14:00,
2013-03-15 02:15:00,7.9,-2.7,29.91,NW,317,10.0,15.0,61,0.00,,---,0.00,VWS V14.01,2013-03-15 10:15:00,
2013-03-15 02:16:00,8.1,-2.5,29.91,WNW,302,8.0,16.0,61,0.00,,---,0.00,VWS V14.01,2013-03-15 10:16:00,
2013-03-15 02:17:00,8.2,-2.5,29.91,WNW,298,7.0,7.0,61,0.00,,---,0.00,VWS V14.01,2013-03-15 10:17:00,
2013-03-15 02:19:00,8.6,-2.4,29.91,West,281,10.0,12.0,60,0.00,,---,0.00,VWS V14.01,2013-03-15 10:19:00,
2013-03-15 02:20:00,8.6,-2.4,29.91,NW,306,4.0,12.0,60,0.00,,---,0.00,VWS V14.01,2013-03-15 10:20:00,
2013-03-15 02:21:00,8.7,-2.3,29.91,WNW,299,6.0,12.0,60,0.00,,---,0.00,VWS V14.01,2013-03-15 10:21:00,
2013-03-15 02:22:00,8.7,-2.3,29.91,NW,319,5.0,7.0,60,0.00,,---,0.00,VWS V14.01,2013-03-15 10:22:00,
2013-03-15 02:25:00,8.9,-2.1,29.91,NW,314,6.0,9.0,60,0.00,,---,0.00,VWS V14.01,2013-03-15 10:25:00,
2013-03-15 02:26:00,8.9,-2.1,29.91,NW,323,3.0,9.0,60,0.00,,---,0.00,VWS V14.01,2013-03-15 10:26:00,
2013-03-15 02:27:00,8.9,-2.1,29.91,NW,321,3.0,4.0,60,0.00,,---,0.00,VWS V14.01,2013-03-15 10:27:00,
2013-03-15 02:30:00,9.1,-2.0,29.91,NNW,338,3.0,10.0,60,0.00,,---,0.00,VWS V14.01,2013-03-15 10:30:00,
2013-03-15 02:31:00,9.2,-1.9,29.90,NNW,328,6.0,8.0,60,0.00,,---,0.00,VWS V14.01,2013-03-15 10:31:00,
2013-03-15 02:32:00,9.3,-1.8,29.90,NW,324,7.0,8.0,60,0.00,,---,0.00,VWS V14.01,2013-03-15 10:32:00,
2013-03-15 02:35:00,9.5,-1.9,29.90,NNW,334,7.0,16.0,59,0.00,,---,0.00,VWS V14.01,2013-03-15 10:35:00,
2013-03-15 02:37:00,9.6,-1.8,29.90,NNW,334,5.0,5.0,59,0.00,,---,0.00,VWS V14.01,2013-03-15 10:37:00,
2013-03-15 02:40:00,9.9,-1.5,29.90,NW,326,6.0,14.0,59,0.00,,---,0.00,VWS V14.01,2013-03-15 10:40:00,
2013-03-15 02:42:00,10.0,-1.5,29.90,WNW,301,5.0,8.0,59,0.00,,---,0.00,VWS V14.01,2013-03-15 10:42:00,
2013-03-15 02:45:00,10.0,-1.8,29.90,NW,309,4.0,8.0,58,0.00,,---,0.00,VWS V14.01,2013-03-15 10:45:00,
2013-03-15 02:47:00,9.9,-1.9,29.89,NNE,17,5.0,12.0,58,0.00,,---,0.00,VWS V14.01,2013-03-15 10:47:00,
2013-03-15 02:48:00,9.8,-1.6,29.89,North,5,7.0,12.0,59,0.00,,---,0.00,VWS V14.01,2013-03-15 10:48:00,
2013-03-15 02:51:00,9.9,-1.5,29.88,North,349,17.0,17.0,59,0.00,,---,0.00,VWS V14.01,2013-03-15 10:51:00,
2013-03-15 02:52:00,9.9,-1.5,29.88,NNE,13,10.0,16.0,59,0.00,,---,0.00,VWS V14.01,2013-03-15 10:52:00,
2013-03-15 02:53:00,9.9,-1.5,29.88,NNW,331,13.0,16.0,59,0.00,,---,0.00,VWS V14.01,2013-03-15 10:53:00,
2013-03-15 02:57:00,9.8,-1.3,29.87,North,5,15.0,15.0,60,0.00,,---,0.00,VWS V14.01,2013-03-15 10:57:00,
2013-03-15 02:58:00,9.8,-0.9,29.88,North,9,12.0,20.0,61,0.00,,---,0.00,VWS V14.01,2013-03-15 10:58:00,
2013-03-15 03:02:00,9.7,-1.4,29.87,North,10,14.0,19.0,60,0.00,,---,0.00,VWS V14.01,2013-03-15 11:02:00,
2013-03-15 03:03:00,9.8,-1.3,29.87,North,360,17.0,21.0,60,0.00,,---,0.00,VWS V14.01,2013-03-15 11:03:00,
2013-03-15 03:07:00,9.8,-0.9,29.87,North,360,17.0,18.0,61,0.00,,---,0.00,VWS V14.01,2013-03-15 11:07:00,
2013-03-15 03:08:00,9.8,-0.9,29.87,NNW,335,17.0,21.0,61,0.00,,---,0.00,VWS V14.01,2013-03-15 11:08:00,
2013-03-15 03:12:00,9.8,-1.3,29.87,NNW,344,16.0,21.0,60,0.00,,---,0.00,VWS V14.01,2013-03-15 11:12:00,
2013-03-15 03:13:00,9.9,-1.2,29.87,North,355,18.0,24.0,60,0.00,,---,0.00,VWS V14.01,2013-03-15 11:13:00,
2013-03-15 03:17:00,9.9,-1.2,29.88,North,360,17.0,22.0,60,0.00,,---,0.00,VWS V14.01,2013-03-15 11:17:00,
2013-03-15 03:18:00,9.8,-1.3,29.87,NNW,347,19.0,22.0,60,0.00,,---,0.00,VWS V14.01,2013-03-15 11:18:00,
2013-03-15 03:19:00,9.8,-1.3,29.87,NNW,340,21.0,25.0,60,0.00,,---,0.00,VWS V14.01,2013-03-15 11:19:00,
2013-03-15 03:22:00,9.7,-0.7,29.87,NNW,344,15.0,17.0,62,0.00,,---,0.00,VWS V14.01,2013-03-15 11:22:00,
2013-03-15 03:23:00,9.9,-0.5,29.88,NNW,333,12.0,17.0,62,0.00,,---,0.00,VWS V14.01,2013-03-15 11:23:00,
2013-03-15 03:24:00,10.0,-0.4,29.88,North,355,10.0,17.0,62,0.00,,---,0.00,VWS V14.01,2013-03-15 11:24:00,
2013-03-15 03:27:00,10.4,-0.7,29.88,NNW,330,8.0,16.0,60,0.00,,---,0.00,VWS V14.01,2013-03-15 11:27:00,
2013-03-15 03:28:00,10.4,-0.7,29.88,NNW,336,17.0,19.0,60,0.00,,---,0.00,VWS V14.01,2013-03-15 11:28:00,
2013-03-15 03:29:00,10.5,-0.6,29.88,North,350,13.0,19.0,60,0.00,,---,0.00,VWS V14.01,2013-03-15 11:29:00,
2013-03-15 03:32:00,10.3,-0.5,29.87,NNW,344,7.0,14.0,61,0.00,,---,0.00,VWS V14.01,2013-03-15 11:32:00,
2013-03-15 03:33:00,10.3,-0.5,29.88,North,5,12.0,20.0,61,0.00,,---,0.00,VWS V14.01,2013-03-15 11:33:00,
2013-03-15 03:34:00,10.3,-0.5,29.87,North,355,17.0,24.0,61,0.00,,---,0.00,VWS V14.01,2013-03-15 11:34:00,
2013-03-15 03:38:00,9.8,-3.1,29.86,NNE,28,19.0,19.0,55,0.00,,---,0.00,VWS V14.01,2013-03-15 11:38:00,
2013-03-15 03:39:00,9.9,-3.0,29.86,NE,44,17.0,19.0,55,0.00,,---,0.00,VWS V14.01,2013-03-15 11:39:00,
2013-03-15 03:43:00,10.2,-2.7,29.87,NE,36,20.0,22.0,55,0.00,,---,0.00,VWS V14.01,2013-03-15 11:43:00,
2013-03-15 03:44:00,10.3,-3.0,29.87,NNE,22,11.0,22.0,54,0.00,,---,0.00,VWS V14.01,2013-03-15 11:44:00,
2013-03-15 03:48:00,9.9,-3.0,29.86,NE,34,18.0,23.0,55,0.00,,---,0.00,VWS V14.01,2013-03-15 11:48:00,
2013-03-15 03:49:00,9.9,-3.0,29.86,NNE,16,19.0,23.0,55,0.00,,---,0.00,VWS V14.01,2013-03-15 11:49:00,
2013-03-15 03:53:00,10.1,-2.8,29.86,NNE,26,5.0,14.0,55,0.00,,---,0.00,VWS V14.01,2013-03-15 11:53:00,
2013-03-15 03:54:00,10.1,-2.8,29.86,North,5,11.0,15.0,55,0.00,,---,0.00,VWS V14.01,2013-03-15 11:54:00,
2013-03-15 03:58:00,10.4,-2.6,29.86,NNW,343,6.0,14.0,55,0.00,,---,0.00,VWS V14.01,2013-03-15 11:58:00,
2013-03-15 03:59:00,10.4,-2.6,29.86,NNE,27,6.0,14.0,55,0.00,,---,0.00,VWS V14.01,2013-03-15 11:59:00,
2013-03-15 04:00:00,10.5,-2.8,29.86,North,355,5.0,14.0,54,0.00,,---,0.00,VWS V14.01,2013-03-15 12:00:00,
2013-03-15 04:03:00,10.6,-2.8,29.86,North,11,4.0,9.0,54,0.00,,---,0.00,VWS V14.01,2013-03-15 12:03:00,
2013-03-15 04:04:00,10.6,-2.8,29.86,NNW,336,3.0,9.0,54,0.00,,---,0.00,VWS V14.01,2013-03-15 12:04:00,
2013-03-15 04:05:00,10.6,-2.8,29.86,NE,55,2.0,9.0,54,0.00,,---,0.00,VWS V14.01,2013-03-15 12:05:00,
2013-03-15 04:08:00,10.9,-2.5,29.85,NE,40,12.0,19.0,54,0.00,,---,0.00,VWS V14.01,2013-03-15 12:08:00,
2013-03-15 04:09:00,10.9,-2.5,29.85,NE,46,15.0,19.0,54,0.00,,---,0.00,VWS V14.01,2013-03-15 12:09:00,
2013-03-15 04:10:00,11.1,-2.3,29.85,NE,52,19.0,21.0,54,0.00,,---,0.00,VWS V14.01,2013-03-15 12:10:00,
2013-03-15 04:14:00,11.5,-2.3,29.86,NE,43,14.0,23.0,53,0.00,,---,0.00,VWS V14.01,2013-03-15 12:14:00,
2013-03-15 04:15:00,11.3,-2.5,29.85,NNE,28,17.0,23.0,53,0.00,,---,0.00,VWS V14.01,2013-03-15 12:15:00,
2013-03-15 04:19:00,11.4,-2.0,29.85,NE,53,16.0,19.0,54,0.00,,---,0.00,VWS V14.01,2013-03-15 12:19:00,
2013-03-15 04:20:00,11.5,-1.9,29.85,NE,39,16.0,19.0,54,0.00,,---,0.00,VWS V14.01,2013-03-15 12:20:00,
2013-03-15 04:24:00,11.9,-1.9,29.85,NE,55,15.0,20.0,53,0.00,,---,0.00,VWS V14.01,2013-03-15 12:24:00,
2013-03-15 04:25:00,11.9,-1.9,29.85,NE,49,13.0,20.0,53,0.00,,---,0.00,VWS V14.01,2013-03-15 12:25:00,
2013-03-15 04:29:00,11.7,-2.1,29.84,NE,46,15.0,23.0,53,0.00,,---,0.00,VWS V14.01,2013-03-15 12:29:00,
2013-03-15 04:30:00,11.6,-2.2,29.84,NE,45,15.0,23.0,53,0.00,,---,0.00,VWS V14.01,2013-03-15 12:30:00,
2013-03-15 04:34:00,11.7,-1.7,29.84,NE,39,21.0,27.0,54,0.00,,---,0.00,VWS V14.01,2013-03-15 12:34:00,
2013-03-15 04:35:00,11.7,-1.7,29.84,NE,40,16.0,27.0,54,0.00,,---,0.00,VWS V14.01,2013-03-15 12:35:00,
2013-03-15 04:40:00,11.8,-1.6,29.84,NE,43,18.0,22.0,54,0.00,,---,0.00,VWS V14.01,2013-03-15 12:40:00,
2013-03-15 04:45:00,12.0,-1.8,29.84,NE,55,20.0,24.0,53,0.00,,---,0.00,VWS V14.01,2013-03-15 12:45:00,
2013-03-15 04:46:00,11.7,-2.1,29.83,North,5,17.0,24.0,53,0.00,,---,0.00,VWS V14.01,2013-03-15 12:46:00,
2013-03-15 04:50:00,11.2,0.4,29.83,North,360,16.0,25.0,61,0.00,,---,0.00,VWS V14.01,2013-03-15 12:50:00,
2013-03-15 04:51:00,11.0,0.2,29.83,NNW,340,14.0,25.0,61,0.00,,---,0.00,VWS V14.01,2013-03-15 12:51:00,
2013-03-15 04:55:00,11.1,0.3,29.83,North,10,12.0,24.0,61,0.00,,---,0.00,VWS V14.01,2013-03-15 12:55:00,
2013-03-15 04:56:00,11.1,0.3,29.83,North,360,13.0,24.0,61,0.00,,---,0.00,VWS V14.01,2013-03-15 12:56:00,
2013-03-15 04:57:00,11.1,0.6,29.83,North,5,18.0,18.0,62,0.00,,---,0.00,VWS V14.01,2013-03-15 12:57:00,
2013-03-15 05:01:00,11.8,1.0,29.84,North,349,15.0,19.0,61,0.00,,---,0.00,VWS V14.01,2013-03-15 13:01:00,
2013-03-15 05:02:00,12.0,0.8,29.84,North,355,18.0,19.0,60,0.00,,---,0.00,VWS V14.01,2013-03-15 13:02:00,
2013-03-15 05:06:00,12.6,1.0,29.84,North,5,14.0,21.0,59,0.00,,---,0.00,VWS V14.01,2013-03-15 13:06:00,
2013-03-15 05:07:00,12.6,1.0,29.83,NNW,342,13.0,13.0,59,0.00,,---,0.00,VWS V14.01,2013-03-15 13:07:00,
2013-03-15 05:08:00,12.7,1.1,29.83,North,355,10.0,15.0,59,0.00,,---,0.00,VWS V14.01,2013-03-15 13:08:00,
2013-03-15 05:11:00,12.9,1.3,29.83,North,360,14.0,18.0,59,0.00,,---,0.00,VWS V14.01,2013-03-15 13:11:00,
2013-03-15 05:12:00,13.0,1.4,29.83,NNW,339,15.0,15.0,59,0.00,,---,0.00,VWS V14.01,2013-03-15 13:12:00,
2013-03-15 05:13:00,13.0,1.4,29.83,North,5,10.0,17.0,59,0.00,,---,0.00,VWS V14.01,2013-03-15 13:13:00,
2013-03-15 05:17:00,12.9,1.3,29.83,North,351,13.0,17.0,59,0.00,,---,0.00,VWS V14.01,2013-03-15 13:17:00,
2013-03-15 05:18:00,12.8,1.2,29.83,North,360,11.0,15.0,59,0.00,,---,0.00,VWS V14.01,2013-03-15 13:18:00,
2013-03-15 05:22:00,12.8,1.5,29.83,North,355,10.0,12.0,60,0.00,,---,0.00,VWS V14.01,2013-03-15 13:22:00,
2013-03-15 05:23:00,12.8,1.5,29.83,North,5,10.0,15.0,60,0.00,,---,0.00,VWS V14.01,2013-03-15 13:23:00,
2013-03-15 05:27:00,13.0,2.1,29.83,North,355,14.0,14.0,61,0.00,,---,0.00,VWS V14.01,2013-03-15 13:27:00,
2013-03-15 05:28:00,13.0,2.1,29.83,NNE,12,14.0,14.0,61,0.00,,---,0.00,VWS V14.01,2013-03-15 13:28:00,
2013-03-15 05:32:00,13.0,1.4,29.83,North,355,15.0,16.0,59,0.00,,---,0.00,VWS V14.01,2013-03-15 13:32:00,
2013-03-15 05:33:00,13.0,1.7,29.82,North,355,17.0,20.0,60,0.00,,---,0.00,VWS V14.01,2013-03-15 13:33:00,
2013-03-15 05:37:00,13.4,2.5,29.82,NNW,344,15.0,18.0,61,0.00,,---,0.00,VWS V14.01,2013-03-15 13:37:00,
2013-03-15 05:38:00,13.4,2.5,29.82,North,355,21.0,21.0,61,0.00,,---,0.00,VWS V14.01,2013-03-15 13:38:00,
2013-03-15 05:39:00,13.5,2.2,29.82,NNE,13,17.0,21.0,60,0.00,,---,0.00,VWS V14.01,2013-03-15 13:39:00,
2013-03-15 05:42:00,14.4,3.1,29.81,NNE,18,14.0,18.0,60,0.00,,---,0.00,VWS V14.01,2013-03-15 13:42:00,
2013-03-15 05:43:00,14.4,3.1,29.81,North,360,17.0,18.0,60,0.00,,---,0.00,VWS V14.01,2013-03-15 13:43:00,
2013-03-15 05:44:00,14.5,2.8,29.81,North,9,15.0,18.0,59,0.00,,---,0.00,VWS V14.01,2013-03-15 13:44:00,
2013-03-15 05:48:00,14.3,2.6,29.82,North,360,13.0,18.0,59,0.00,,---,0.00,VWS V14.01,2013-03-15 13:48:00,
2013-03-15 05:49:00,14.1,2.4,29.81,NNE,12,10.0,18.0,59,0.00,,---,0.00,VWS V14.01,2013-03-15 13:49:00,
2013-03-15 05:53:00,13.6,2.3,29.81,North,360,10.0,17.0,60,0.00,,---,0.00,VWS V14.01,2013-03-15 13:53:00,
2013-03-15 05:54:00,13.7,2.4,29.81,NNE,19,13.0,17.0,60,0.00,,---,0.00,VWS V14.01,2013-03-15 13:54:00,
2013-03-15 05:58:00,13.6,2.3,29.81,NNE,20,15.0,17.0,60,0.00,,---,0.00,VWS V14.01,2013-03-15 13:58:00,
2013-03-15 05:59:00,13.4,2.1,29.81,North,355,12.0,17.0,60,0.00,,---,0.00,VWS V14.01,2013-03-15 13:59:00,
2013-03-15 06:03:00,12.4,1.2,29.81,North,5,16.0,21.0,60,0.00,,---,0.00,VWS V14.01,2013-03-15 14:03:00,
2013-03-15 06:04:00,12.4,1.2,29.81,North,355,15.0,21.0,60,0.00,,---,0.00,VWS V14.01,2013-03-15 14:04:00,
2013-03-15 06:08:00,12.1,1.2,29.82,NNW,348,9.0,17.0,61,0.00,,---,0.00,VWS V14.01,2013-03-15 14:08:00,
2013-03-15 06:09:00,12.1,0.9,29.82,North,360,14.0,17.0,60,0.00,,---,0.00,VWS V14.01,2013-03-15 14:09:00,
2013-03-15 06:14:00,11.8,0.6,29.83,North,355,6.0,9.0,60,0.00,,---,0.00,VWS V14.01,2013-03-15 14:14:00,
2013-03-15 06:19:00,11.4,0.2,29.83,WNW,282,4.0,11.0,60,0.00,,---,0.00,VWS V14.01,2013-03-15 14:19:00,
2013-03-15 06:20:00,11.3,0.1,29.83,West,273,6.0,11.0,60,0.00,,---,0.00,VWS V14.01,2013-03-15 14:20:00,
2013-03-15 06:24:00,11.1,-0.1,29.82,NW,309,9.0,11.0,60,0.00,,---,0.00,VWS V14.01,2013-03-15 14:24:00,
2013-03-15 06:25:00,11.2,-1.4,29.82,North,360,11.0,13.0,56,0.00,,---,0.00,VWS V14.01,2013-03-15 14:25:00,
2013-03-15 06:29:00,11.5,-1.5,29.82,NNW,327,7.0,10.0,55,0.00,,---,0.00,VWS V14.01,2013-03-15 14:29:00,
2013-03-15 06:30:00,11.5,-1.5,29.82,NNW,327,7.0,10.0,55,0.00,,---,0.00,VWS V14.01,2013-03-15 14:30:00,
2013-03-15 06:31:00,11.4,0.6,29.81,West,270,2.0,10.0,61,0.00,,---,0.00,VWS V14.01,2013-03-15 14:31:00,
2013-03-15 06:34:00,11.4,0.6,29.81,NW,311,6.0,8.0,61,0.00,,---,0.00,VWS V14.01,2013-03-15 14:34:00,
2013-03-15 06:35:00,11.4,0.6,29.81,WNW,288,7.0,8.0,61,0.00,,---,0.00,VWS V14.01,2013-03-15 14:35:00,
2013-03-15 06:36:00,11.4,0.2,29.81,NNW,334,4.0,8.0,60,0.00,,---,0.00,VWS V14.01,2013-03-15 14:36:00,
2013-03-15 06:40:00,11.8,0.6,29.81,NW,315,4.0,12.0,60,0.00,,---,0.00,VWS V14.01,2013-03-15 14:40:00,
2013-03-15 06:41:00,11.9,0.7,29.81,NW,325,7.0,12.0,60,0.00,,---,0.00,VWS V14.01,2013-03-15 14:41:00,
2013-03-15 06:45:00,12.0,0.8,29.81,WNW,302,5.0,8.0,60,0.00,,---,0.00,VWS V14.01,2013-03-15 14:45:00,
2013-03-15 06:46:00,12.1,0.9,29.81,WNW,302,3.0,13.0,60,0.00,,---,0.00,VWS V14.01,2013-03-15 14:46:00,
2013-03-15 06:50:00,12.3,0.7,29.81,West,273,5.0,13.0,59,0.00,,---,0.00,VWS V14.01,2013-03-15 14:50:00,
2013-03-15 06:51:00,12.3,0.7,29.81,WNW,292,3.0,13.0,59,0.00,,---,0.00,VWS V14.01,2013-03-15 14:51:00,
2013-03-15 06:53:00,12.2,0.6,29.81,NNW,333,5.0,8.0,59,0.00,,---,0.00,VWS V14.01,2013-03-15 14:53:00,
2013-03-15 06:55:00,12.0,0.8,29.81,North,350,2.0,8.0,60,0.00,,---,0.00,VWS V14.01,2013-03-15 14:55:00,
2013-03-15 06:56:00,12.0,0.8,29.80,North,350,0.0,8.0,60,0.00,,---,0.00,VWS V14.01,2013-03-15 14:56:00,
2013-03-15 06:58:00,12.0,1.1,29.80,North,5,5.0,10.0,61,0.00,,---,0.00,VWS V14.01,2013-03-15 14:58:00,
2013-03-15 07:00:00,12.2,1.3,29.81,NNW,342,5.0,10.0,61,0.00,,---,0.00,VWS V14.01,2013-03-15 15:00:00,
2013-03-15 07:01:00,12.2,1.3,29.81,NW,307,5.0,10.0,61,0.00,,---,0.00,VWS V14.01,2013-03-15 15:01:00,
2013-03-15 07:03:00,12.2,1.0,29.81,NW,313,5.0,10.0,60,0.00,,---,0.00,VWS V14.01,2013-03-15 15:03:00,
2013-03-15 07:06:00,12.2,1.3,29.81,NNW,330,4.0,10.0,61,0.00,,---,0.00,VWS V14.01,2013-03-15 15:06:00,
2013-03-15 07:08:00,12.2,1.3,29.81,NNW,331,2.0,4.0,61,0.00,,---,0.00,VWS V14.01,2013-03-15 15:08:00,
2013-03-15 07:11:00,12.4,1.2,29.80,WSW,249,3.0,14.0,60,0.00,,---,0.00,VWS V14.01,2013-03-15 15:11:00,
2013-03-15 07:12:00,12.4,1.2,29.80,WNW,282,5.0,8.0,60,0.00,,---,0.00,VWS V14.01,2013-03-15 15:12:00,
2013-03-15 07:14:00,12.5,1.3,29.81,WNW,288,3.0,8.0,60,0.00,,---,0.00,VWS V14.01,2013-03-15 15:14:00,
2013-03-15 07:17:00,12.5,1.3,29.80,West,273,9.0,9.0,60,0.00,,---,0.00,VWS V14.01,2013-03-15 15:17:00,
2013-03-15 07:19:00,12.6,1.4,29.81,NW,321,5.0,10.0,60,0.00,,---,0.00,VWS V14.01,2013-03-15 15:19:00,
2013-03-15 07:22:00,12.5,1.6,29.81,NW,310,7.0,11.0,61,0.00,,---,0.00,VWS V14.01,2013-03-15 15:22:00,
2013-03-15 07:23:00,12.4,1.5,29.81,NW,318,5.0,11.0,61,0.00,,---,0.00,VWS V14.01,2013-03-15 15:23:00,
2013-03-15 07:24:00,12.5,1.3,29.81,West,269,5.0,12.0,60,0.00,,---,0.00,VWS V14.01,2013-03-15 15:24:00,
2013-03-15 07:27:00,12.6,1.4,29.81,NW,305,5.0,6.0,60,0.00,,---,0.00,VWS V14.01,2013-03-15 15:27:00,
2013-03-15 07:28:00,12.6,1.4,29.81,NW,307,4.0,6.0,60,0.00,,---,0.00,VWS V14.01,2013-03-15 15:28:00,
2013-03-15 07:29:00,12.6,1.4,29.81,NW,326,4.0,6.0,60,0.00,,---,0.00,VWS V14.01,2013-03-15 15:29:00,
2013-03-15 07:33:00,12.5,1.6,29.81,NNW,336,0.0,4.0,61,0.00,,---,0.00,VWS V14.01,2013-03-15 15:33:00,
2013-03-15 07:34:00,12.5,1.6,29.80,NW,320,6.0,6.0,61,0.00,,---,0.00,VWS V14.01,2013-03-15 15:34:00,
2013-03-15 07:38:00,12.6,1.4,29.81,NNW,338,3.0,10.0,60,0.00,,---,0.00,VWS V14.01,2013-03-15 15:38:00,
2013-03-15 07:39:00,12.6,1.4,29.80,West,261,5.0,10.0,60,0.00,,---,0.00,VWS V14.01,2013-03-15 15:39:00,
2013-03-15 07:43:00,12.4,1.5,29.81,NNW,336,6.0,6.0,61,0.00,,---,0.00,VWS V14.01,2013-03-15 15:43:00,
2013-03-15 07:44:00,12.4,1.5,29.81,NNW,329,0.0,7.0,61,0.00,,---,0.00,VWS V14.01,2013-03-15 15:44:00,
2013-03-15 07:48:00,12.4,1.5,29.80,NNW,338,5.0,8.0,61,0.00,,---,0.00,VWS V14.01,2013-03-15 15:48:00,
2013-03-15 07:50:00,12.4,1.5,29.80,North,355,10.0,15.0,61,0.00,,---,0.00,VWS V14.01,2013-03-15 15:50:00,
2013-03-15 07:53:00,12.5,1.6,29.80,NNE,21,7.0,12.0,61,0.00,,---,0.00,VWS V14.01,2013-03-15 15:53:00,
2013-03-15 07:56:00,12.6,1.7,29.79,NNE,12,10.0,16.0,61,0.00,,---,0.00,VWS V14.01,2013-03-15 15:56:00,
2013-03-15 07:58:00,12.6,1.7,29.79,North,355,13.0,16.0,61,0.00,,---,0.00,VWS V14.01,2013-03-15 15:58:00,
2013-03-15 07:59:00,12.6,1.7,29.79,North,355,10.0,16.0,61,0.00,,---,0.00,VWS V14.01,2013-03-15 15:59:00,
2013-03-15 08:01:00,12.7,2.2,29.79,North,9,11.0,17.0,62,0.00,,---,0.00,VWS V14.01,2013-03-15 16:01:00,
2013-03-15 08:03:00,12.9,2.3,29.79,North,9,10.0,13.0,62,0.00,,---,0.00,VWS V14.01,2013-03-15 16:03:00,
2013-03-15 08:04:00,13.0,2.4,29.79,NNE,14,6.0,13.0,62,0.00,,---,0.00,VWS V14.01,2013-03-15 16:04:00,
2013-03-15 08:06:00,13.0,2.4,29.79,North,9,12.0,14.0,62,0.00,,---,0.00,VWS V14.01,2013-03-15 16:06:00,
2013-03-15 08:08:00,13.0,2.1,29.79,NNW,342,11.0,13.0,61,0.00,,---,0.00,VWS V14.01,2013-03-15 16:08:00,
2013-03-15 08:09:00,13.1,2.2,29.79,NNW,348,5.0,13.0,61,0.00,,---,0.00,VWS V14.01,2013-03-15 16:09:00,
2013-03-15 08:12:00,13.2,2.6,29.79,North,9,5.0,8.0,62,0.00,,---,0.00,VWS V14.01,2013-03-15 16:12:00,
2013-03-15 08:13:00,13.3,2.7,29.79,NNW,341,5.0,10.0,62,0.00,,---,0.00,VWS V14.01,2013-03-15 16:13:00,
2013-03-15 08:14:00,13.3,2.7,29.79,NNW,348,11.0,14.0,62,0.00,,---,0.00,VWS V14.01,2013-03-15 16:14:00,
2013-03-15 08:17:00,13.6,2.3,29.79,NNW,331,2.0,5.0,60,0.00,,---,0.00,VWS V14.01,2013-03-15 16:17:00,
2013-03-15 08:18:00,13.8,2.5,29.79,NNW,331,1.0,5.0,60,0.00,,---,0.00,VWS V14.01,2013-03-15 16:18:00,
2013-03-15 08:19:00,13.9,2.6,29.79,NNW,331,0.0,5.0,60,0.00,,---,0.00,VWS V14.01,2013-03-15 16:19:00,
2013-03-15 08:22:00,13.8,2.1,29.80,NNW,336,2.0,3.0,59,0.00,,---,0.00,VWS V14.01,2013-03-15 16:22:00,
2013-03-15 08:24:00,13.5,2.2,29.79,NNW,337,1.0,3.0,60,0.00,,---,0.00,VWS V14.01,2013-03-15 16:24:00,
2013-03-15 08:27:00,13.1,1.8,29.79,NNW,342,10.0,10.0,60,0.00,,---,0.00,VWS V14.01,2013-03-15 16:27:00,
2013-03-15 08:29:00,13.2,1.9,29.79,North,360,7.0,13.0,60,0.00,,---,0.00,VWS V14.01,2013-03-15 16:29:00,
2013-03-15 08:33:00,13.3,2.0,29.79,North,349,0.0,6.0,60,0.00,,---,0.00,VWS V14.01,2013-03-15 16:33:00,
2013-03-15 08:34:00,13.4,2.8,29.79,North,355,2.0,6.0,62,0.00,,---,0.00,VWS V14.01,2013-03-15 16:34:00,
2013-03-15 08:35:00,13.4,2.8,29.79,NNE,19,3.0,6.0,62,0.00,,---,0.00,VWS V14.01,2013-03-15 16:35:00,
2013-03-15 08:38:00,13.3,2.7,29.78,North,355,8.0,10.0,62,0.00,,---,0.00,VWS V14.01,2013-03-15 16:38:00,
2013-03-15 08:39:00,13.2,2.3,29.78,North,5,7.0,13.0,61,0.00,,---,0.00,VWS V14.01,2013-03-15 16:39:00,
2013-03-15 08:40:00,13.2,2.3,29.78,North,5,7.0,13.0,61,0.00,,---,0.00,VWS V14.01,2013-03-15 16:40:00,
2013-03-15 08:43:00,13.1,2.5,29.77,North,355,8.0,11.0,62,0.00,,---,0.00,VWS V14.01,2013-03-15 16:43:00,
2013-03-15 08:45:00,13.0,2.4,29.77,North,360,12.0,13.0,62,0.00,,---,0.00,VWS V14.01,2013-03-15 16:45:00,
2013-03-15 08:49:00,13.0,2.4,29.77,North,9,8.0,14.0,62,0.00,,---,0.00,VWS V14.01,2013-03-15 16:49:00,
2013-03-15 08:50:00,13.0,2.4,29.77,North,360,8.0,14.0,62,0.00,,---,0.00,VWS V14.01,2013-03-15 16:50:00,
2013-03-15 08:55:00,13.0,2.1,29.78,North,355,6.0,11.0,61,0.00,,---,0.00,VWS V14.01,2013-03-15 16:55:00,
2013-03-15 08:56:00,13.0,2.1,29.78,North,355,3.0,11.0,61,0.00,,---,0.00,VWS V14.01,2013-03-15 16:56:00,
2013-03-15 09:00:00,12.6,1.7,29.79,North,351,0.0,4.0,61,0.00,,---,0.00,VWS V14.01,2013-03-15 17:00:00,
2013-03-15 09:01:00,12.5,1.6,29.79,North,351,2.0,4.0,61,0.00,,---,0.00,VWS V14.01,2013-03-15 17:01:00,
2013-03-15 09:02:00,12.5,1.6,29.79,North,351,2.0,3.0,61,0.00,,---,0.00,VWS V14.01,2013-03-15 17:02:00,
2013-03-15 09:05:00,12.4,1.5,29.79,North,351,0.0,3.0,61,0.00,,---,0.00,VWS V14.01,2013-03-15 17:05:00,
2013-03-15 09:06:00,12.3,1.8,29.78,North,351,0.0,0.0,62,0.00,,---,0.00,VWS V14.01,2013-03-15 17:06:00,
2013-03-15 09:07:00,12.3,1.8,29.78,North,351,0.0,4.0,62,0.00,,---,0.00,VWS V14.01,2013-03-15 17:07:00,
2013-03-15 09:10:00,12.3,2.1,29.79,North,5,2.0,4.0,63,0.00,,---,0.00,VWS V14.01,2013-03-15 17:10:00,
2013-03-15 09:11:00,12.3,2.1,29.79,North,5,2.0,4.0,63,0.00,,---,0.00,VWS V14.01,2013-03-15 17:11:00,
2013-03-15 09:13:00,12.3,1.8,29.78,North,5,3.0,4.0,62,0.00,,---,0.00,VWS V14.01,2013-03-15 17:13:00,
2013-03-15 09:15:00,12.3,2.1,29.78,North,5,2.0,6.0,63,0.00,,---,0.00,VWS V14.01,2013-03-15 17:15:00,
2013-03-15 09:16:00,12.3,2.1,29.79,North,5,0.0,6.0,63,0.00,,---,0.00,VWS V14.01,2013-03-15 17:16:00,
2013-03-15 09:17:00,12.3,2.1,29.79,North,5,3.0,3.0,63,0.00,,---,0.00,VWS V14.01,2013-03-15 17:17:00,
2013-03-15 09:18:00,12.3,1.8,29.78,North,5,0.0,4.0,62,0.00,,---,0.00,VWS V14.01,2013-03-15 17:18:00,
2013-03-15 09:21:00,12.2,1.7,29.78,NNE,23,0.0,4.0,62,0.00,,---,0.00,VWS V14.01,2013-03-15 17:21:00,
2013-03-15 09:22:00,12.2,1.7,29.78,NNE,18,3.0,6.0,62,0.00,,---,0.00,VWS V14.01,2013-03-15 17:22:00,
2013-03-15 09:23:00,12.2,1.7,29.78,NNE,18,2.0,5.0,62,0.00,,---,0.00,VWS V14.01,2013-03-15 17:23:00,
2013-03-15 09:26:00,12.2,1.7,29.78,North,5,5.0,7.0,62,0.00,,---,0.00,VWS V14.01,2013-03-15 17:26:00,
2013-03-15 09:27:00,12.3,1.8,29.78,North,351,5.0,7.0,62,0.00,,---,0.00,VWS V14.01,2013-03-15 17:27:00,
2013-03-15 09:28:00,12.3,1.8,29.78,North,360,7.0,7.0,62,0.00,,---,0.00,VWS V14.01,2013-03-15 17:28:00,
2013-03-15 09:31:00,12.5,2.0,29.77,North,5,11.0,14.0,62,0.00,,---,0.00,VWS V14.01,2013-03-15 17:31:00,
2013-03-15 09:32:00,12.6,2.1,29.78,North,350,10.0,11.0,62,0.00,,---,0.00,VWS V14.01,2013-03-15 17:32:00,
2013-03-15 09:33:00,12.7,2.2,29.78,North,355,8.0,11.0,62,0.00,,---,0.00,VWS V14.01,2013-03-15 17:33:00,
2013-03-15 09:36:00,12.9,2.3,29.78,NNW,345,5.0,11.0,62,0.00,,---,0.00,VWS V14.01,2013-03-15 17:36:00,
2013-03-15 09:37:00,12.9,2.3,29.78,NW,311,6.0,6.0,62,0.00,,---,0.00,VWS V14.01,2013-03-15 17:37:00,
2013-03-15 09:38:00,13.0,2.4,29.78,NNW,327,7.0,8.0,62,0.00,,---,0.00,VWS V14.01,2013-03-15 17:38:00,
2013-03-15 09:41:00,13.2,2.3,29.78,NW,326,2.0,8.0,61,0.00,,---,0.00,VWS V14.01,2013-03-15 17:41:00,
2013-03-15 09:42:00,13.2,2.6,29.78,NW,326,1.0,2.0,62,0.00,,---,0.00,VWS V14.01,2013-03-15 17:42:00,
2013-03-15 09:43:00,13.3,2.4,29.78,NW,321,1.0,6.0,61,0.00,,---,0.00,VWS V14.01,2013-03-15 17:43:00,
2013-03-15 09:46:00,13.3,2.4,29.78,NW,320,0.0,6.0,61,0.00,,---,0.00,VWS V14.01,2013-03-15 17:46:00,
2013-03-15 09:47:00,13.4,2.5,29.78,NW,321,0.0,1.0,61,0.00,,---,0.00,VWS V14.01,2013-03-15 17:47:00,
2013-03-15 09:48:00,13.4,2.5,29.77,NW,320,0.0,1.0,61,0.00,,---,0.00,VWS V14.01,2013-03-15 17:48:00,
2013-03-15 09:52:00,13.4,2.8,29.78,NNW,334,5.0,8.0,62,0.00,,---,0.00,VWS V14.01,2013-03-15 17:52:00,
2013-03-15 09:53:00,13.3,2.4,29.78,NNW,343,1.0,8.0,61,0.00,,---,0.00,VWS V14.01,2013-03-15 17:53:00,
2013-03-15 09:54:00,13.3,2.7,29.78,NNW,343,0.0,8.0,62,0.00,,---,0.00,VWS V14.01,2013-03-15 17:54:00,
2013-03-15 09:57:00,13.2,2.6,29.78,NNW,335,0.0,5.0,62,0.00,,---,0.00,VWS V14.01,2013-03-15 17:57:00,
2013-03-15 09:58:00,13.2,2.6,29.78,NNW,335,0.0,5.0,62,0.00,,---,0.00,VWS V14.01,2013-03-15 17:58:00,
2013-03-15 09:59:00,13.2,2.3,29.78,North,360,1.0,5.0,61,0.00,,---,0.00,VWS V14.01,2013-03-15 17:59:00,
2013-03-15 10:02:00,13.2,2.3,29.78,North,360,7.0,8.0,61,0.00,,---,0.00,VWS V14.01,2013-03-15 18:02:00,
2013-03-15 10:03:00,13.2,2.3,29.78,North,5,8.0,12.0,61,0.00,,---,0.00,VWS V14.01,2013-03-15 18:03:00,
2013-03-15 10:04:00,13.1,2.2,29.78,North,5,10.0,14.0,61,0.00,,---,0.00,VWS V14.01,2013-03-15 18:04:00,
2013-03-15 10:07:00,12.9,2.3,29.78,North,355,8.0,15.0,62,0.00,,---,0.00,VWS V14.01,2013-03-15 18:07:00,
2013-03-15 10:08:00,12.9,2.3,29.77,North,5,5.0,15.0,62,0.00,,---,0.00,VWS V14.01,2013-03-15 18:08:00,
2013-03-15 10:10:00,13.0,2.4,29.78,North,355,4.0,15.0,62,0.00,,---,0.00,VWS V14.01,2013-03-15 18:10:00,
2013-03-15 10:13:00,13.0,2.1,29.78,NNW,340,4.0,10.0,61,0.00,,---,0.00,VWS V14.01,2013-03-15 18:13:00,
2013-03-15 10:15:00,13.1,2.2,29.78,NNE,21,6.0,10.0,61,0.00,,---,0.00,VWS V14.01,2013-03-15 18:15:00,
2013-03-15 10:18:00,13.2,2.6,29.78,NNW,336,1.0,12.0,62,0.00,,---,0.00,VWS V14.01,2013-03-15 18:18:00,
2013-03-15 10:19:00,13.4,2.8,29.78,NNW,336,0.0,12.0,62,0.00,,---,0.00,VWS V14.01,2013-03-15 18:19:00,
2013-03-15 10:21:00,13.4,2.8,29.78,NNE,20,2.0,12.0,62,0.00,,---,0.00,VWS V14.01,2013-03-15 18:21:00,
2013-03-15 10:23:00,13.4,2.5,29.78,NNE,20,2.0,2.0,61,0.00,,---,0.00,VWS V14.01,2013-03-15 18:23:00,
2013-03-15 10:24:00,13.4,2.5,29.78,NNE,19,2.0,3.0,61,0.00,,---,0.00,VWS V14.01,2013-03-15 18:24:00,
2013-03-15 10:26:00,13.5,2.6,29.78,SW,217,0.0,5.0,61,0.00,,---,0.00,VWS V14.01,2013-03-15 18:26:00,
2013-03-15 10:28:00,13.6,2.7,29.78,SW,217,0.0,2.0,61,0.00,,---,0.00,VWS V14.01,2013-03-15 18:28:00,
2013-03-15 10:29:00,13.6,3.0,29.78,SW,217,0.0,2.0,62,0.00,,---,0.00,VWS V14.01,2013-03-15 18:29:00,
2013-03-15 10:31:00,13.7,3.1,29.78,SW,217,0.0,2.0,62,0.00,,---,0.00,VWS V14.01,2013-03-15 18:31:00,
2013-03-15 10:33:00,13.9,3.0,29.78,WNW,292,3.0,8.0,61,0.00,,---,0.00,VWS V14.01,2013-03-15 18:33:00,
2013-03-15 10:34:00,14.0,3.0,29.78,WNW,294,0.0,8.0,61,0.00,,---,0.00,VWS V14.01,2013-03-15 18:34:00,
2013-03-15 10:37:00,14.2,3.2,29.78,WNW,290,3.0,5.0,61,0.00,,---,0.00,VWS V14.01,2013-03-15 18:37:00,
2013-03-15 10:39:00,14.3,3.3,29.78,WNW,290,2.0,5.0,61,0.00,,---,0.00,VWS V14.01,2013-03-15 18:39:00,
2013-03-15 10:42:00,14.4,3.1,29.77,West,264,2.0,2.0,60,0.00,,---,0.00,VWS V14.01,2013-03-15 18:42:00,
2013-03-15 10:44:00,14.3,3.3,29.77,WNW,300,3.0,5.0,61,0.00,,---,0.00,VWS V14.01,2013-03-15 18:44:00,
2013-03-15 10:45:00,14.3,3.3,29.77,NNW,333,4.0,5.0,61,0.00,,---,0.00,VWS V14.01,2013-03-15 18:45:00,
2013-03-15 10:47:00,14.3,4.0,29.77,NNW,340,3.0,6.0,63,0.00,,---,0.00,VWS V14.01,2013-03-15 18:47:00,
2013-03-15 10:50:00,14.4,3.4,29.77,NNW,333,4.0,6.0,61,0.00,,---,0.00,VWS V14.01,2013-03-15 18:50:00,
2013-03-15 10:52:00,14.6,3.6,29.77,West,279,2.0,4.0,61,0.00,,---,0.00,VWS V14.01,2013-03-15 18:52:00,
2013-03-15 10:55:00,14.9,3.5,29.77,WNW,291,0.0,7.0,60,0.00,,---,0.00,VWS V14.01,2013-03-15 18:55:00,
2013-03-15 10:57:00,15.1,4.4,29.76,WNW,290,0.0,0.0,62,0.00,,---,0.00,VWS V14.01,2013-03-15 18:57:00,
2013-03-15 11:00:00,15.4,4.7,29.77,ENE,60,0.0,5.0,62,0.00,,---,0.00,VWS V14.01,2013-03-15 19:00:00,
2013-03-15 11:03:00,15.7,4.7,29.77,ENE,57,3.0,4.0,61,0.00,,---,0.00,VWS V14.01,2013-03-15 19:03:00,
2013-03-15 11:05:00,16.1,5.0,29.76,ENE,71,3.0,4.0,61,0.00,,---,0.00,VWS V14.01,2013-03-15 19:05:00,
2013-03-15 11:08:00,16.2,4.4,29.77,ENE,72,2.0,4.0,59,0.00,,---,0.00,VWS V14.01,2013-03-15 19:08:00,
2013-03-15 11:10:00,16.5,4.3,29.76,North,355,0.0,8.0,58,0.00,,---,0.00,VWS V14.01,2013-03-15 19:10:00,
2013-03-15 11:11:00,16.5,4.3,29.76,North,355,0.0,8.0,58,0.00,,---,0.00,VWS V14.01,2013-03-15 19:11:00,
2013-03-15 11:13:00,16.7,5.2,29.77,North,355,2.0,3.0,60,0.00,,---,0.00,VWS V14.01,2013-03-15 19:13:00,
2013-03-15 11:16:00,17.0,4.8,29.76,North,5,0.0,3.0,58,0.00,,---,0.00,VWS V14.01,2013-03-15 19:16:00,
2013-03-15 11:18:00,17.1,4.9,29.76,SSE,150,4.0,5.0,58,0.00,,---,0.00,VWS V14.01,2013-03-15 19:18:00,
2013-03-15 11:21:00,17.3,5.1,29.77,SE,144,0.0,0.0,58,0.00,,---,0.00,VWS V14.01,2013-03-15 19:21:00,
2013-03-15 11:22:00,17.3,5.1,29.77,SE,144,4.0,4.0,58,0.00,,---,0.00,VWS V14.01,2013-03-15 19:22:00,
2013-03-15 11:23:00,17.3,5.4,29.77,East,85,5.0,6.0,59,0.00,,---,0.00,VWS V14.01,2013-03-15 19:23:00,
2013-03-15 11:27:00,17.7,5.8,29.76,NNW,341,5.0,11.0,59,0.00,,---,0.00,VWS V14.01,2013-03-15 19:27:00,
2013-03-15 11:28:00,17.8,5.5,29.77,NNW,345,3.0,5.0,58,0.00,,---,0.00,VWS V14.01,2013-03-15 19:28:00,
2013-03-15 11:32:00,18.1,5.4,29.76,North,9,2.0,7.0,57,0.00,,---,0.00,VWS V14.01,2013-03-15 19:32:00,
2013-03-15 11:33:00,18.1,5.4,29.76,NNE,22,1.0,7.0,57,0.00,,---,0.00,VWS V14.01,2013-03-15 19:33:00,
2013-03-15 11:37:00,18.2,5.9,29.76,NNE,33,3.0,9.0,58,0.00,,---,0.00,VWS V14.01,2013-03-15 19:37:00,
2013-03-15 11:38:00,18.2,5.9,29.76,ENE,63,7.0,10.0,58,0.00,,---,0.00,VWS V14.01,2013-03-15 19:38:00,
2013-03-15 11:42:00,18.2,5.9,29.76,NE,42,16.0,16.0,58,0.00,,---,0.00,VWS V14.01,2013-03-15 19:42:00,
2013-03-15 11:43:00,18.2,5.9,29.76,ENE,70,5.0,16.0,58,0.00,,---,0.00,VWS V14.01,2013-03-15 19:43:00,
2013-03-15 11:47:00,18.0,6.1,29.76,NE,46,5.0,12.0,59,0.00,,---,0.00,VWS V14.01,2013-03-15 19:47:00,
2013-03-15 11:48:00,18.0,6.1,29.76,NE,55,8.0,14.0,59,0.00,,---,0.00,VWS V14.01,2013-03-15 19:48:00,
2013-03-15 11:52:00,18.0,5.7,29.76,NE,47,6.0,9.0,58,0.00,,---,0.00,VWS V14.01,2013-03-15 19:52:00,
2013-03-15 11:53:00,18.1,6.2,29.76,NE,51,6.0,9.0,59,0.00,,---,0.00,VWS V14.01,2013-03-15 19:53:00,
2013-03-15 11:57:00,18.1,5.8,29.76,NE,51,5.0,7.0,58,0.00,,---,0.00,VWS V14.01,2013-03-15 19:57:00,
2013-03-15 11:58:00,18.1,6.2,29.75,North,360,7.0,9.0,59,0.00,,---,0.00,VWS V14.01,2013-03-15 19:58:00,
2013-03-15 12:02:00,18.4,6.1,29.75,NNE,24,5.0,11.0,58,0.00,,---,0.00,VWS V14.01,2013-03-15 20:02:00,
2013-03-15 12:03:00,18.4,6.1,29.75,ENE,59,7.0,11.0,58,0.00,,---,0.00,VWS V14.01,2013-03-15 20:03:00,
2013-03-15 12:04:00,18.4,5.7,29.75,NE,44,5.0,11.0,57,0.00,,---,0.00,VWS V14.01,2013-03-15 20:04:00,
2013-03-15 12:07:00,18.6,5.9,29.75,NE,35,6.0,10.0,57,0.00,,---,0.00,VWS V14.01,2013-03-15 20:07:00,
2013-03-15 12:08:00,18.7,6.0,29.75,ENE,67,7.0,10.0,57,0.00,,---,0.00,VWS V14.01,2013-03-15 20:08:00,
2013-03-15 12:09:00,18.8,6.1,29.75,NE,36,8.0,10.0,57,0.00,,---,0.00,VWS V14.01,2013-03-15 20:09:00,
2013-03-15 12:13:00,19.1,6.4,29.75,NE,51,7.0,15.0,57,0.00,,---,0.00,VWS V14.01,2013-03-15 20:13:00,
2013-03-15 12:14:00,19.2,6.5,29.75,NNE,31,9.0,15.0,57,0.00,,---,0.00,VWS V14.01,2013-03-15 20:14:00,
2013-03-15 12:18:00,19.1,6.8,29.75,NE,44,7.0,15.0,58,0.00,,---,0.00,VWS V14.01,2013-03-15 20:18:00,
2013-03-15 12:19:00,19.1,6.8,29.74,NNE,32,8.0,15.0,58,0.00,,---,0.00,VWS V14.01,2013-03-15 20:19:00,
2013-03-15 12:23:00,19.0,6.3,29.74,NE,36,10.0,14.0,57,0.00,,---,0.00,VWS V14.01,2013-03-15 20:23:00,
2013-03-15 12:24:00,19.0,6.3,29.74,NE,49,12.0,14.0,57,0.00,,---,0.00,VWS V14.01,2013-03-15 20:24:00,
2013-03-15 12:25:00,19.0,6.3,29.74,ENE,63,6.0,14.0,57,0.00,,---,0.00,VWS V14.01,2013-03-15 20:25:00,
2013-03-15 12:28:00,19.1,6.8,29.74,NE,39,8.0,12.0,58,0.00,,---,0.00,VWS V14.01,2013-03-15 20:28:00,
2013-03-15 12:29:00,19.2,6.9,29.74,NNE,30,8.0,12.0,58,0.00,,---,0.00,VWS V14.01,2013-03-15 20:29:00,
2013-03-15 12:30:00,19.3,6.6,29.74,NNE,26,15.0,15.0,57,0.00,,---,0.00,VWS V14.01,2013-03-15 20:30:00,
2013-03-15 12:33:00,19.4,7.1,29.74,ENE,65,5.0,12.0,58,0.00,,---,0.00,VWS V14.01,2013-03-15 20:33:00,
2013-03-15 12:34:00,19.4,7.1,29.74,NE,36,9.0,13.0,58,0.00,,---,0.00,VWS V14.01,2013-03-15 20:34:00,
2013-03-15 12:35:00,19.4,7.1,29.74,ENE,59,10.0,13.0,58,0.00,,---,0.00,VWS V14.01,2013-03-15 20:35:00,
2013-03-15 12:38:00,19.3,6.6,29.74,ENE,59,7.0,14.0,57,0.00,,---,0.00,VWS V14.01,2013-03-15 20:38:00,
2013-03-15 12:39:00,19.3,6.6,29.74,ENE,65,12.0,15.0,57,0.00,,---,0.00,VWS V14.01,2013-03-15 20:39:00,
2013-03-15 12:40:00,19.3,6.6,29.74,ENE,64,10.0,15.0,57,0.00,,---,0.00,VWS V14.01,2013-03-15 20:40:00,
2013-03-15 12:43:00,19.4,7.1,29.74,ENE,62,7.0,16.0,58,0.00,,---,0.00,VWS V14.01,2013-03-15 20:43:00,
2013-03-15 12:44:00,19.4,7.1,29.74,NE,51,6.0,16.0,58,0.00,,---,0.00,VWS V14.01,2013-03-15 20:44:00,
2013-03-15 12:45:00,19.4,7.1,29.74,ENE,59,7.0,16.0,58,0.00,,---,0.00,VWS V14.01,2013-03-15 20:45:00,
2013-03-15 12:49:00,19.3,7.3,29.74,ENE,75,5.0,11.0,59,0.00,,---,0.00,VWS V14.01,2013-03-15 20:49:00,
2013-03-15 12:50:00,19.2,7.2,29.74,ENE,69,4.0,11.0,59,0.00,,---,0.00,VWS V14.01,2013-03-15 20:50:00,
2013-03-15 12:55:00,18.9,6.9,29.74,NE,55,1.0,10.0,59,0.00,,---,0.00,VWS V14.01,2013-03-15 20:55:00,
2013-03-15 13:00:00,19.0,5.5,29.74,NNE,31,2.0,6.0,55,0.00,,---,0.00,VWS V14.01,2013-03-15 21:00:00,
2013-03-15 13:05:00,19.3,6.2,29.74,NE,44,0.0,5.0,56,0.00,,---,0.00,VWS V14.01,2013-03-15 21:05:00,
2013-03-15 13:10:00,19.5,5.2,29.74,NNW,342,1.0,8.0,53,0.00,,---,0.00,VWS V14.01,2013-03-15 21:10:00,
2013-03-15 13:15:00,19.6,5.7,29.73,North,355,3.0,7.0,54,0.00,,---,0.00,VWS V14.01,2013-03-15 21:15:00,
2013-03-15 13:16:00,19.5,5.6,29.73,North,355,3.0,7.0,54,0.00,,---,0.00,VWS V14.01,2013-03-15 21:16:00,
2013-03-15 13:20:00,19.7,5.8,29.74,NNW,333,2.0,8.0,54,0.00,,---,0.00,VWS V14.01,2013-03-15 21:20:00,
2013-03-15 13:21:00,19.7,5.8,29.74,NNW,333,1.0,8.0,54,0.00,,---,0.00,VWS V14.01,2013-03-15 21:21:00,
2013-03-15 13:26:00,19.3,2.4,29.74,ENE,65,1.0,5.0,47,0.00,,---,0.00,VWS V14.01,2013-03-15 21:26:00,
2013-03-15 13:31:00,19.5,2.6,29.74,East,80,4.0,6.0,47,0.00,,---,0.00,VWS V14.01,2013-03-15 21:31:00,
2013-03-15 13:32:00,19.5,2.6,29.74,East,90,5.0,5.0,47,0.00,,---,0.00,VWS V14.01,2013-03-15 21:32:00,
2013-03-15 13:36:00,19.8,2.8,29.74,ENE,73,4.0,6.0,47,0.00,,---,0.00,VWS V14.01,2013-03-15 21:36:00,
2013-03-15 13:37:00,19.8,2.8,29.74,ENE,74,3.0,6.0,47,0.00,,---,0.00,VWS V14.01,2013-03-15 21:37:00,
2013-03-15 13:41:00,20.0,2.6,29.74,ENE,69,1.0,6.0,46,0.00,,---,0.00,VWS V14.01,2013-03-15 21:41:00,
2013-03-15 13:42:00,20.0,2.6,29.74,ENE,69,2.0,2.0,46,0.00,,---,0.00,VWS V14.01,2013-03-15 21:42:00,
2013-03-15 13:47:00,20.1,2.7,29.74,NNE,28,3.0,3.0,46,0.00,,---,0.00,VWS V14.01,2013-03-15 21:47:00,
2013-03-15 13:52:00,20.1,3.1,29.74,ESE,109,1.0,1.0,47,0.00,,---,0.00,VWS V14.01,2013-03-15 21:52:00,
2013-03-15 13:57:00,20.2,2.7,29.75,East,92,2.0,6.0,46,0.00,,---,0.00,VWS V14.01,2013-03-15 21:57:00,
2013-03-15 14:02:00,20.1,3.1,29.74,East,82,2.0,3.0,47,0.00,,---,0.00,VWS V14.01,2013-03-15 22:02:00,
2013-03-15 14:03:00,20.1,3.1,29.74,East,79,3.0,3.0,47,0.00,,---,0.00,VWS V14.01,2013-03-15 22:03:00,
2013-03-15 14:07:00,20.3,2.8,29.74,SE,134,2.0,5.0,46,0.00,,---,0.00,VWS V14.01,2013-03-15 22:07:00,
2013-03-15 14:08:00,20.2,2.7,29.74,SE,126,2.0,5.0,46,0.00,,---,0.00,VWS V14.01,2013-03-15 22:08:00,
2013-03-15 14:13:00,20.0,2.6,29.74,East,95,2.0,5.0,46,0.00,,---,0.00,VWS V14.01,2013-03-15 22:13:00,
2013-03-15 14:14:00,20.0,2.6,29.74,East,98,6.0,6.0,46,0.00,,---,0.00,VWS V14.01,2013-03-15 22:14:00,
2013-03-15 14:18:00,19.7,2.8,29.74,SE,146,7.0,11.0,47,0.00,,---,0.00,VWS V14.01,2013-03-15 22:18:00,
2013-03-15 14:19:00,19.7,2.8,29.74,ESE,110,12.0,12.0,47,0.00,,---,0.00,VWS V14.01,2013-03-15 22:19:00,
2013-03-15 14:23:00,19.4,3.8,29.74,ESE,123,5.0,6.0,50,0.00,,---,0.00,VWS V14.01,2013-03-15 22:23:00,
2013-03-15 14:24:00,19.3,3.7,29.74,ESE,123,8.0,8.0,50,0.00,,---,0.00,VWS V14.01,2013-03-15 22:24:00,
2013-03-15 14:28:00,19.1,4.0,29.74,East,101,8.0,8.0,51,0.00,,---,0.00,VWS V14.01,2013-03-15 22:28:00,
2013-03-15 14:29:00,19.0,3.9,29.74,East,93,5.0,8.0,51,0.00,,---,0.00,VWS V14.01,2013-03-15 22:29:00,
2013-03-15 14:33:00,18.7,2.3,29.73,ENE,72,3.0,10.0,48,0.00,,---,0.00,VWS V14.01,2013-03-15 22:33:00,
2013-03-15 14:34:00,18.7,2.3,29.73,NE,43,2.0,10.0,48,0.00,,---,0.00,VWS V14.01,2013-03-15 22:34:00,
2013-03-15 14:35:00,18.7,2.3,29.73,ENE,58,3.0,10.0,48,0.00,,---,0.00,VWS V14.01,2013-03-15 22:35:00,
2013-03-15 14:38:00,18.8,2.4,29.73,ENE,57,4.0,8.0,48,0.00,,---,0.00,VWS V14.01,2013-03-15 22:38:00,
2013-03-15 14:39:00,19.1,5.6,29.73,NNE,28,4.0,8.0,55,0.00,,---,0.00,VWS V14.01,2013-03-15 22:39:00,
2013-03-15 14:40:00,19.1,6.0,29.74,NNE,28,0.0,8.0,56,0.00,,---,0.00,VWS V14.01,2013-03-15 22:40:00,
2013-03-15 14:43:00,19.2,5.7,29.74,NE,48,3.0,6.0,55,0.00,,---,0.00,VWS V14.01,2013-03-15 22:43:00,
2013-03-15 14:44:00,19.2,5.7,29.74,NE,47,0.0,6.0,55,0.00,,---,0.00,VWS V14.01,2013-03-15 22:44:00,
2013-03-15 14:45:00,19.1,6.0,29.74,NE,47,4.0,6.0,56,0.00,,---,0.00,VWS V14.01,2013-03-15 22:45:00,
2013-03-15 14:48:00,19.0,6.3,29.74,NE,42,5.0,9.0,57,0.00,,---,0.00,VWS V14.01,2013-03-15 22:48:00,
2013-03-15 14:49:00,18.9,6.2,29.73,NNE,20,6.0,9.0,57,0.00,,---,0.00,VWS V14.01,2013-03-15 22:49:00,
2013-03-15 14:50:00,18.9,6.6,29.73,NNE,19,0.0,9.0,58,0.00,,---,0.00,VWS V14.01,2013-03-15 22:50:00,
2013-03-15 14:53:00,18.9,6.6,29.73,NNE,20,0.0,0.0,58,0.00,,---,0.00,VWS V14.01,2013-03-15 22:53:00,
2013-03-15 14:54:00,19.0,6.7,29.73,NNE,20,0.0,0.0,58,0.00,,---,0.00,VWS V14.01,2013-03-15 22:54:00,
2013-03-15 14:55:00,19.0,6.3,29.73,NNE,30,4.0,4.0,57,0.00,,---,0.00,VWS V14.01,2013-03-15 22:55:00,
2013-03-15 14:59:00,19.2,7.2,29.73,East,90,5.0,6.0,59,0.00,,---,0.00,VWS V14.01,2013-03-15 22:59:00,
2013-03-15 15:00:00,19.2,7.2,29.73,East,88,5.0,7.0,59,0.00,,---,0.00,VWS V14.01,2013-03-15 23:00:00,
2013-03-15 15:05:00,19.3,6.9,29.73,East,90,6.0,6.0,58,0.00,,---,0.00,VWS V14.01,2013-03-15 23:05:00,
2013-03-15 15:06:00,19.3,7.3,29.73,East,90,4.0,6.0,59,0.00,,---,0.00,VWS V14.01,2013-03-15 23:06:00,
2013-03-15 15:10:00,19.3,7.3,29.73,East,101,2.0,7.0,59,0.00,,---,0.00,VWS V14.01,2013-03-15 23:10:00,
2013-03-15 15:11:00,19.3,6.9,29.73,East,101,4.0,7.0,58,0.00,,---,0.00,VWS V14.01,2013-03-15 23:11:00,
2013-03-15 15:15:00,19.3,8.1,29.73,East,96,0.0,6.0,61,0.00,,---,0.00,VWS V14.01,2013-03-15 23:15:00,
2013-03-15 15:16:00,19.4,8.5,29.73,East,96,6.0,6.0,62,0.00,,---,0.00,VWS V14.01,2013-03-15 23:16:00,
2013-03-15 15:20:00,19.3,7.7,29.73,ENE,67,3.0,6.0,60,0.00,,---,0.00,VWS V14.01,2013-03-15 23:20:00,
2013-03-15 15:21:00,19.3,7.7,29.73,ENE,67,1.0,6.0,60,0.00,,---,0.00,VWS V14.01,2013-03-15 23:21:00,
2013-03-15 15:26:00,19.1,6.0,29.73,ENE,62,5.0,5.0,56,0.00,,---,0.00,VWS V14.01,2013-03-15 23:26:00,
2013-03-15 15:27:00,19.2,6.1,29.73,NE,37,4.0,7.0,56,0.00,,---,0.00,VWS V14.01,2013-03-15 23:27:00,
2013-03-15 15:31:00,19.5,7.5,29.73,NE,36,3.0,7.0,59,0.00,,---,0.00,VWS V14.01,2013-03-15 23:31:00,
2013-03-15 15:32:00,19.5,7.5,29.73,NE,46,3.0,3.0,59,0.00,,---,0.00,VWS V14.01,2013-03-15 23:32:00,
2013-03-15 15:36:00,19.8,7.0,29.73,East,80,3.0,5.0,57,0.00,,---,0.00,VWS V14.01,2013-03-15 23:36:00,
2013-03-15 15:37:00,19.8,7.4,29.73,ENE,68,7.0,7.0,58,0.00,,---,0.00,VWS V14.01,2013-03-15 23:37:00,
2013-03-15 15:41:00,19.7,6.9,29.73,ENE,67,4.0,10.0,57,0.00,,---,0.00,VWS V14.01,2013-03-15 23:41:00,
2013-03-15 15:42:00,19.7,6.9,29.73,ENE,67,3.0,4.0,57,0.00,,---,0.00,VWS V14.01,2013-03-15 23:42:00,
2013-03-15 15:46:00,19.7,6.9,29.72,ENE,70,3.0,6.0,57,0.00,,---,0.00,VWS V14.01,2013-03-15 23:46:00,
2013-03-15 15:47:00,19.7,6.9,29.72,ENE,70,4.0,5.0,57,0.00,,---,0.00,VWS V14.01,2013-03-15 23:47:00,
2013-03-15 15:51:00,19.7,6.9,29.72,East,101,6.0,8.0,57,0.00,,---,0.00,VWS V14.01,2013-03-15 23:51:00,
2013-03-15 15:52:00,19.7,6.9,29.72,East,101,1.0,5.0,57,0.00,,---,0.00,VWS V14.01,2013-03-15 23:52:00,
2013-03-15 15:56:00,19.5,6.8,29.72,ENE,67,4.0,7.0,57,0.00,,---,0.00,VWS V14.01,2013-03-15 23:56:00,
2013-03-15 15:57:00,19.5,7.1,29.72,ENE,67,3.0,7.0,58,0.00,,---,0.00,VWS V14.01,2013-03-15 23:57:00,
2013-03-15 15:58:00,19.5,7.5,29.72,ENE,67,2.0,4.0,59,0.00,,---,0.00,VWS V14.01,2013-03-15 23:58:00,
2013-03-15 16:02:00,19.1,6.8,29.72,East,89,5.0,6.0,58,0.00,,---,0.00,VWS V14.01,2013-03-16 00:02:00,
2013-03-15 16:03:00,19.1,6.8,29.72,East,87,3.0,7.0,58,0.00,,---,0.00,VWS V14.01,2013-03-16 00:03:00,
2013-03-15 16:07:00,19.0,7.1,29.72,East,94,4.0,5.0,59,0.00,,---,0.00,VWS V14.01,2013-03-16 00:07:00,
2013-03-15 16:08:00,19.0,7.1,29.72,East,96,4.0,6.0,59,0.00,,---,0.00,VWS V14.01,2013-03-16 00:08:00,
2013-03-15 16:09:00,19.0,7.1,29.72,East,96,5.0,6.0,59,0.00,,---,0.00,VWS V14.01,2013-03-16 00:09:00,
2013-03-15 16:12:00,19.1,7.5,29.72,East,99,2.0,4.0,60,0.00,,---,0.00,VWS V14.01,2013-03-16 00:12:00,
2013-03-15 16:13:00,19.1,7.9,29.72,East,99,1.0,4.0,61,0.00,,---,0.00,VWS V14.01,2013-03-16 00:13:00,
2013-03-15 16:14:00,19.1,7.9,29.71,East,99,5.0,5.0,61,0.00,,---,0.00,VWS V14.01,2013-03-16 00:14:00,
2013-03-15 16:17:00,19.1,7.5,29.71,East,85,5.0,6.0,60,0.00,,---,0.00,VWS V14.01,2013-03-16 00:17:00,
2013-03-15 16:18:00,19.1,7.5,29.71,East,85,2.0,6.0,60,0.00,,---,0.00,VWS V14.01,2013-03-16 00:18:00,
2013-03-15 16:19:00,19.1,7.9,29.71,East,80,5.0,6.0,61,0.00,,---,0.00,VWS V14.01,2013-03-16 00:19:00,
2013-03-15 16:22:00,18.9,8.1,29.71,East,80,3.0,4.0,62,0.00,,---,0.00,VWS V14.01,2013-03-16 00:22:00,
2013-03-15 16:23:00,18.9,8.1,29.71,East,80,3.0,6.0,62,0.00,,---,0.00,VWS V14.01,2013-03-16 00:23:00,
2013-03-15 16:24:00,18.8,7.9,29.71,East,80,4.0,6.0,62,0.00,,---,0.00,VWS V14.01,2013-03-16 00:24:00,
2013-03-15 16:27:00,18.7,8.2,29.71,ENE,67,7.0,7.0,63,0.00,,---,0.00,VWS V14.01,2013-03-16 00:27:00,
2013-03-15 16:28:00,18.7,8.2,29.71,ENE,67,4.0,7.0,63,0.00,,---,0.00,VWS V14.01,2013-03-16 00:28:00,
2013-03-15 16:29:00,18.7,8.2,29.71,ENE,67,3.0,7.0,63,0.00,,---,0.00,VWS V14.01,2013-03-16 00:29:00,
2013-03-15 16:33:00,18.6,7.8,29.71,NE,41,6.0,6.0,62,0.00,,---,0.00,VWS V14.01,2013-03-16 00:33:00,
2013-03-15 16:34:00,18.6,7.8,29.71,NE,41,5.0,6.0,62,0.00,,---,0.00,VWS V14.01,2013-03-16 00:34:00,
2013-03-15 16:38:00,18.5,7.7,29.71,NE,41,3.0,6.0,62,0.00,,---,0.00,VWS V14.01,2013-03-16 00:38:00,
2013-03-15 16:39:00,18.5,7.7,29.71,NE,46,5.0,6.0,62,0.00,,---,0.00,VWS V14.01,2013-03-16 00:39:00,
2013-03-15 16:40:00,18.5,7.7,29.71,ENE,75,5.0,7.0,62,0.00,,---,0.00,VWS V14.01,2013-03-16 00:40:00,
2013-03-15 16:44:00,18.6,8.1,29.71,ENE,75,2.0,4.0,63,0.00,,---,0.00,VWS V14.01,2013-03-16 00:44:00,
2013-03-15 16:45:00,18.6,8.1,29.71,ENE,75,4.0,5.0,63,0.00,,---,0.00,VWS V14.01,2013-03-16 00:45:00,
2013-03-15 16:49:00,18.6,7.4,29.71,ENE,69,6.0,6.0,61,0.00,,---,0.00,VWS V14.01,2013-03-16 00:49:00,
2013-03-15 16:50:00,18.5,7.3,29.71,ENE,69,7.0,8.0,61,0.00,,---,0.00,VWS V14.01,2013-03-16 00:50:00,
2013-03-15 16:54:00,18.4,7.6,29.71,NE,53,3.0,6.0,62,0.00,,---,0.00,VWS V14.01,2013-03-16 00:54:00,
2013-03-15 16:55:00,18.4,7.6,29.71,NE,53,3.0,6.0,62,0.00,,---,0.00,VWS V14.01,2013-03-16 00:55:00,
2013-03-15 16:59:00,18.4,7.9,29.70,ENE,59,0.0,4.0,63,0.00,,---,0.00,VWS V14.01,2013-03-16 00:59:00,
2013-03-15 17:00:00,18.4,7.9,29.70,ENE,59,2.0,4.0,63,0.00,,---,0.00,VWS V14.01,2013-03-16 01:00:00,
2013-03-15 17:05:00,18.3,7.8,29.70,ENE,63,3.0,4.0,63,0.00,,---,0.00,VWS V14.01,2013-03-16 01:05:00,
2013-03-15 17:10:00,18.4,8.3,29.70,ENE,63,4.0,4.0,64,0.00,,---,0.00,VWS V14.01,2013-03-16 01:10:00,
2013-03-15 17:11:00,18.4,7.9,29.70,ENE,64,2.0,5.0,63,0.00,,---,0.00,VWS V14.01,2013-03-16 01:11:00,
2013-03-15 17:15:00,18.5,7.7,29.70,ENE,71,3.0,5.0,62,0.00,,---,0.00,VWS V14.01,2013-03-16 01:15:00,
2013-03-15 17:16:00,18.4,7.6,29.70,ENE,71,3.0,5.0,62,0.00,,---,0.00,VWS V14.01,2013-03-16 01:16:00,
2013-03-15 17:20:00,18.5,8.0,29.70,ENE,71,2.0,6.0,63,0.00,,---,0.00,VWS V14.01,2013-03-16 01:20:00,
2013-03-15 17:21:00,18.5,8.0,29.70,ENE,71,1.0,6.0,63,0.00,,---,0.00,VWS V14.01,2013-03-16 01:21:00,
2013-03-15 17:25:00,18.7,8.2,29.70,ENE,71,0.0,2.0,63,0.00,,---,0.00,VWS V14.01,2013-03-16 01:25:00,
2013-03-15 17:26:00,18.7,8.2,29.70,ENE,71,1.0,2.0,63,0.00,,---,0.00,VWS V14.01,2013-03-16 01:26:00,
2013-03-15 17:31:00,18.6,7.8,29.70,ENE,71,3.0,5.0,62,0.00,,---,0.00,VWS V14.01,2013-03-16 01:31:00,
2013-03-15 17:36:00,18.4,7.6,29.69,ENE,71,4.0,5.0,62,0.00,,---,0.00,VWS V14.01,2013-03-16 01:36:00,
2013-03-15 17:41:00,18.2,7.7,29.70,East,80,3.0,7.0,63,0.00,,---,0.00,VWS V14.01,2013-03-16 01:41:00,
2013-03-15 17:42:00,18.1,7.6,29.70,East,80,2.0,2.0,63,0.00,,---,0.00,VWS V14.01,2013-03-16 01:42:00,
2013-03-15 17:46:00,18.0,8.2,29.70,East,84,5.0,7.0,65,0.00,,---,0.00,VWS V14.01,2013-03-16 01:46:00,
2013-03-15 17:47:00,18.0,8.2,29.70,East,84,4.0,4.0,65,0.00,,---,0.00,VWS V14.01,2013-03-16 01:47:00,
2013-03-15 17:51:00,18.0,8.2,29.70,ENE,78,6.0,7.0,65,0.00,,---,0.00,VWS V14.01,2013-03-16 01:51:00,
2013-03-15 17:52:00,18.0,8.2,29.70,ENE,78,3.0,6.0,65,0.00,,---,0.00,VWS V14.01,2013-03-16 01:52:00,
2013-03-15 17:53:00,18.0,8.2,29.70,East,79,4.0,6.0,65,0.00,,---,0.00,VWS V14.01,2013-03-16 01:53:00,
2013-03-15 17:57:00,17.9,8.1,29.70,ENE,71,4.0,7.0,65,0.00,,---,0.00,VWS V14.01,2013-03-16 01:57:00,
2013-03-15 17:58:00,17.9,8.1,29.70,East,80,6.0,6.0,65,0.00,,---,0.00,VWS V14.01,2013-03-16 01:58:00,
2013-03-15 18:02:00,17.9,8.5,29.70,East,81,2.0,2.0,66,0.00,,---,0.00,VWS V14.01,2013-03-16 02:02:00,
2013-03-15 18:03:00,17.9,8.5,29.70,East,82,4.0,5.0,66,0.00,,---,0.00,VWS V14.01,2013-03-16 02:03:00,
2013-03-15 18:07:00,17.9,8.8,29.70,East,82,2.0,3.0,67,0.00,,---,0.00,VWS V14.01,2013-03-16 02:07:00,
2013-03-15 18:08:00,17.9,8.8,29.70,East,82,4.0,4.0,67,0.00,,---,0.00,VWS V14.01,2013-03-16 02:08:00,
2013-03-15 18:12:00,17.9,8.8,29.70,East,82,4.0,5.0,67,0.00,,---,0.00,VWS V14.01,2013-03-16 02:12:00,
2013-03-15 18:13:00,17.9,8.8,29.70,East,81,5.0,5.0,67,0.00,,---,0.00,VWS V14.01,2013-03-16 02:13:00,
2013-03-15 18:17:00,17.7,8.6,29.69,East,81,4.0,4.0,67,0.00,,---,0.00,VWS V14.01,2013-03-16 02:17:00,
2013-03-15 18:18:00,17.7,8.6,29.69,East,81,3.0,4.0,67,0.00,,---,0.00,VWS V14.01,2013-03-16 02:18:00,
2013-03-15 18:22:00,17.6,8.9,29.69,East,81,1.0,4.0,68,0.00,,---,0.00,VWS V14.01,2013-03-16 02:22:00,
2013-03-15 18:23:00,17.6,8.9,29.69,East,81,0.0,4.0,68,0.00,,---,0.00,VWS V14.01,2013-03-16 02:23:00,
2013-03-15 18:27:00,17.5,8.8,29.69,East,81,3.0,4.0,68,0.00,,---,0.00,VWS V14.01,2013-03-16 02:27:00,
2013-03-15 18:28:00,17.5,8.8,29.69,East,81,2.0,4.0,68,0.00,,---,0.00,VWS V14.01,2013-03-16 02:28:00,
2013-03-15 18:33:00,17.4,8.7,29.69,East,81,2.0,3.0,68,0.00,,---,0.00,VWS V14.01,2013-03-16 02:33:00,
2013-03-15 18:34:00,17.4,8.7,29.69,East,81,4.0,5.0,68,0.00,,---,0.00,VWS V14.01,2013-03-16 02:34:00,
2013-03-15 18:38:00,17.1,8.7,29.70,ENE,78,3.0,6.0,69,0.00,,---,0.00,VWS V14.01,2013-03-16 02:38:00,
2013-03-15 18:39:00,17.1,8.7,29.70,East,80,4.0,7.0,69,0.00,,---,0.00,VWS V14.01,2013-03-16 02:39:00,
2013-03-15 18:43:00,16.9,9.1,29.70,ENE,78,4.0,10.0,71,0.00,,---,0.00,VWS V14.01,2013-03-16 02:43:00,
2013-03-15 18:44:00,16.8,9.0,29.70,ENE,70,6.0,10.0,71,0.00,,---,0.00,VWS V14.01,2013-03-16 02:44:00,
2013-03-15 18:45:00,16.8,9.0,29.70,ENE,76,7.0,10.0,71,0.00,,---,0.00,VWS V14.01,2013-03-16 02:45:00,
2013-03-15 18:48:00,16.6,9.2,29.70,ENE,75,8.0,11.0,72,0.00,,---,0.00,VWS V14.01,2013-03-16 02:48:00,
2013-03-15 18:49:00,16.6,9.5,29.69,ENE,65,6.0,11.0,73,0.00,,---,0.00,VWS V14.01,2013-03-16 02:49:00,
2013-03-15 18:50:00,16.5,9.7,29.69,ENE,72,6.0,11.0,74,0.00,,---,0.00,VWS V14.01,2013-03-16 02:50:00,
2013-03-15 18:53:00,16.4,9.9,29.69,ENE,74,5.0,12.0,75,0.00,,---,0.00,VWS V14.01,2013-03-16 02:53:00,
2013-03-15 18:54:00,16.3,9.8,29.70,East,88,7.0,12.0,75,0.00,,---,0.00,VWS V14.01,2013-03-16 02:54:00,
2013-03-15 18:55:00,16.3,9.8,29.70,East,85,5.0,12.0,75,0.00,,---,0.00,VWS V14.01,2013-03-16 02:55:00,
2013-03-15 18:59:00,16.3,10.1,29.70,East,82,6.0,11.0,76,0.00,,---,0.00,VWS V14.01,2013-03-16 02:59:00,
2013-03-15 19:00:00,16.3,10.1,29.70,East,80,4.0,11.0,76,0.00,,---,0.00,VWS V14.01,2013-03-16 03:00:00,
2013-03-15 19:04:00,16.3,10.4,29.70,East,82,8.0,8.0,77,0.00,,---,0.00,VWS V14.01,2013-03-16 03:04:00,
2013-03-15 19:05:00,16.3,10.4,29.70,ENE,78,5.0,8.0,77,0.00,,---,0.00,VWS V14.01,2013-03-16 03:05:00,
2013-03-15 19:09:00,16.3,10.7,29.70,East,86,4.0,8.0,78,0.00,,---,0.00,VWS V14.01,2013-03-16 03:09:00,
2013-03-15 19:10:00,16.3,10.9,29.70,ENE,78,7.0,8.0,79,0.00,,---,0.00,VWS V14.01,2013-03-16 03:10:00,
2013-03-15 19:11:00,16.3,10.9,29.70,ENE,77,6.0,10.0,79,0.00,,---,0.00,VWS V14.01,2013-03-16 03:11:00,
2013-03-15 19:14:00,16.2,11.1,29.70,East,84,4.0,10.0,80,0.00,,---,0.00,VWS V14.01,2013-03-16 03:14:00,
2013-03-15 19:15:00,16.3,11.2,29.70,East,79,7.0,10.0,80,0.00,,---,0.00,VWS V14.01,2013-03-16 03:15:00,
2013-03-15 19:16:00,16.2,11.1,29.70,ENE,76,6.0,10.0,80,0.00,,---,0.00,VWS V14.01,2013-03-16 03:16:00,
2013-03-15 19:19:00,16.2,11.4,29.70,ENE,67,10.0,11.0,81,0.00,,---,0.00,VWS V14.01,2013-03-16 03:19:00,
2013-03-15 19:20:00,16.2,11.4,29.70,ENE,67,7.0,12.0,81,0.00,,---,0.00,VWS V14.01,2013-03-16 03:20:00,
2013-03-15 19:21:00,16.2,11.4,29.70,East,82,7.0,12.0,81,0.00,,---,0.00,VWS V14.01,2013-03-16 03:21:00,
2013-03-15 19:24:00,16.2,11.4,29.70,East,79,8.0,12.0,81,0.00,,---,0.00,VWS V14.01,2013-03-16 03:24:00,
2013-03-15 19:25:00,16.1,11.3,29.70,ENE,74,6.0,12.0,81,0.00,,---,0.00,VWS V14.01,2013-03-16 03:25:00,
2013-03-15 19:26:00,16.2,11.4,29.70,ENE,76,6.0,12.0,81,0.00,,---,0.00,VWS V14.01,2013-03-16 03:26:00,
2013-03-15 19:29:00,16.2,11.7,29.70,East,91,5.0,10.0,82,0.00,,---,0.00,VWS V14.01,2013-03-16 03:29:00,
2013-03-15 19:31:00,16.2,11.7,29.69,East,81,5.0,10.0,82,0.00,,---,0.00,VWS V14.01,2013-03-16 03:31:00,
2013-03-15 19:34:00,16.2,12.0,29.69,ENE,76,7.0,13.0,83,0.00,,---,0.00,VWS V14.01,2013-03-16 03:34:00,
2013-03-15 19:36:00,16.2,12.0,29.69,ENE,75,5.0,13.0,83,0.00,,---,0.00,VWS V14.01,2013-03-16 03:36:00,
2013-03-15 19:37:00,16.2,12.0,29.69,East,82,7.0,7.0,83,0.00,,---,0.00,VWS V14.01,2013-03-16 03:37:00,
2013-03-15 19:40:00,16.2,12.0,29.69,East,83,8.0,13.0,83,0.00,,---,0.00,VWS V14.01,2013-03-16 03:40:00,
2013-03-15 19:41:00,16.1,11.9,29.69,ENE,65,11.0,13.0,83,0.00,,---,0.00,VWS V14.01,2013-03-16 03:41:00,
2013-03-15 19:42:00,16.1,11.9,29.69,ENE,77,6.0,6.0,83,0.00,,---,0.00,VWS V14.01,2013-03-16 03:42:00,
2013-03-15 19:45:00,16.1,11.9,29.69,ENE,74,6.0,10.0,83,0.00,,---,0.00,VWS V14.01,2013-03-16 03:45:00,
2013-03-15 19:46:00,16.1,12.1,29.69,ENE,69,7.0,10.0,84,0.00,,---,0.00,VWS V14.01,2013-03-16 03:46:00,
2013-03-15 19:47:00,16.1,12.1,29.69,ENE,71,4.0,5.0,84,0.00,,---,0.00,VWS V14.01,2013-03-16 03:47:00,
2013-03-15 19:50:00,16.1,12.1,29.69,ENE,67,3.0,10.0,84,0.00,,---,0.00,VWS V14.01,2013-03-16 03:50:00,
2013-03-15 19:52:00,16.0,12.0,29.69,ENE,75,3.0,5.0,84,0.00,,---,0.00,VWS V14.01,2013-03-16 03:52:00,
2013-03-15 19:55:00,16.0,12.0,29.69,ENE,74,4.0,8.0,84,0.00,,---,0.00,VWS V14.01,2013-03-16 03:55:00,
2013-03-15 19:57:00,16.0,12.0,29.69,ENE,76,5.0,10.0,84,0.00,,---,0.00,VWS V14.01,2013-03-16 03:57:00,
2013-03-15 20:00:00,16.0,12.0,29.69,East,86,5.0,10.0,84,0.00,,---,0.00,VWS V14.01,2013-03-16 04:00:00,
2013-03-15 20:05:00,16.0,12.3,29.69,ENE,71,6.0,11.0,85,0.00,,---,0.00,VWS V14.01,2013-03-16 04:05:00,
2013-03-15 20:10:00,15.9,12.2,29.69,East,80,6.0,10.0,85,0.00,,---,0.00,VWS V14.01,2013-03-16 04:10:00,
2013-03-15 20:15:00,15.9,12.5,29.69,ENE,67,7.0,10.0,86,0.00,,---,0.00,VWS V14.01,2013-03-16 04:15:00,
2013-03-15 20:16:00,15.9,12.5,29.69,East,80,6.0,10.0,86,0.00,,---,0.00,VWS V14.01,2013-03-16 04:16:00,
2013-03-15 20:20:00,15.9,12.5,29.69,East,82,4.0,12.0,86,0.00,,---,0.00,VWS V14.01,2013-03-16 04:20:00,
2013-03-15 20:21:00,15.9,12.5,29.69,East,86,4.0,12.0,86,0.00,,---,0.00,VWS V14.01,2013-03-16 04:21:00,
2013-03-15 20:25:00,15.9,12.5,29.69,ENE,71,6.0,10.0,86,0.00,,---,0.00,VWS V14.01,2013-03-16 04:25:00,
2013-03-15 20:26:00,15.9,12.5,29.69,ENE,73,5.0,10.0,86,0.00,,---,0.00,VWS V14.01,2013-03-16 04:26:00,
2013-03-15 20:30:00,15.9,12.5,29.69,East,83,6.0,12.0,86,0.00,,---,0.00,VWS V14.01,2013-03-16 04:30:00,
2013-03-15 20:31:00,15.9,12.5,29.69,ENE,66,8.0,12.0,86,0.00,,---,0.00,VWS V14.01,2013-03-16 04:31:00,
2013-03-15 20:35:00,15.7,12.3,29.69,East,81,8.0,11.0,86,0.00,,---,0.00,VWS V14.01,2013-03-16 04:35:00,
2013-03-15 20:36:00,15.7,12.3,29.69,East,85,3.0,11.0,86,0.00,,---,0.00,VWS V14.01,2013-03-16 04:36:00,
2013-03-15 20:40:00,15.6,12.2,29.69,East,94,6.0,10.0,86,0.00,,---,0.00,VWS V14.01,2013-03-16 04:40:00,
2013-03-15 20:41:00,15.6,12.2,29.69,ENE,72,4.0,10.0,86,0.00,,---,0.00,VWS V14.01,2013-03-16 04:41:00,
2013-03-15 20:42:00,15.6,12.2,29.69,ENE,76,4.0,5.0,86,0.00,,---,0.00,VWS V14.01,2013-03-16 04:42:00,
2013-03-15 20:45:00,15.5,12.1,29.69,East,86,6.0,10.0,86,0.00,,---,0.00,VWS V14.01,2013-03-16 04:45:00,
2013-03-15 20:46:00,15.5,12.1,29.68,East,86,7.0,7.0,86,0.00,,---,0.00,VWS V14.01,2013-03-16 04:46:00,
2013-03-15 20:47:00,15.5,12.1,29.68,ENE,71,7.0,7.0,86,0.00,,---,0.00,VWS V14.01,2013-03-16 04:47:00,
2013-03-15 20:51:00,15.5,12.1,29.69,ENE,70,6.0,13.0,86,0.00,,---,0.00,VWS V14.01,2013-03-16 04:51:00,
2013-03-15 20:52:00,15.5,12.1,29.69,ENE,78,8.0,10.0,86,0.00,,---,0.00,VWS V14.01,2013-03-16 04:52:00,
2013-03-15 20:53:00,15.5,12.1,29.69,East,83,5.0,10.0,86,0.00,,---,0.00,VWS V14.01,2013-03-16 04:53:00,
2013-03-15 20:56:00,15.4,12.0,29.69,ENE,69,5.0,10.0,86,0.00,,---,0.00,VWS V14.01,2013-03-16 04:56:00,
2013-03-15 20:57:00,15.4,12.0,29.69,ENE,64,6.0,7.0,86,0.00,,---,0.00,VWS V14.01,2013-03-16 04:57:00,
2013-03-15 20:58:00,15.4,12.0,29.69,East,79,6.0,8.0,86,0.00,,---,0.00,VWS V14.01,2013-03-16 04:58:00,
2013-03-15 21:01:00,15.4,12.0,29.69,East,88,4.0,11.0,86,0.00,,---,0.00,VWS V14.01,2013-03-16 05:01:00,
2013-03-15 21:02:00,15.4,11.7,29.69,ENE,69,6.0,6.0,85,0.00,,---,0.00,VWS V14.01,2013-03-16 05:02:00,
2013-03-15 21:03:00,15.4,11.7,29.69,East,81,6.0,8.0,85,0.00,,---,0.00,VWS V14.01,2013-03-16 05:03:00,
2013-03-15 21:06:00,15.4,11.7,29.69,ENE,75,5.0,11.0,85,0.00,,---,0.00,VWS V14.01,2013-03-16 05:06:00,
2013-03-15 21:07:00,15.4,12.0,29.69,ENE,67,5.0,7.0,86,0.00,,---,0.00,VWS V14.01,2013-03-16 05:07:00,
2013-03-15 21:08:00,15.4,12.0,29.69,ENE,67,4.0,10.0,86,0.00,,---,0.00,VWS V14.01,2013-03-16 05:08:00,
2013-03-15 21:09:00,15.4,12.0,29.69,ENE,63,8.0,13.0,86,0.00,,---,0.00,VWS V14.01,2013-03-16 05:09:00,
2013-03-15 21:12:00,15.4,12.0,29.69,ENE,61,7.0,7.0,86,0.00,,---,0.00,VWS V14.01,2013-03-16 05:12:00,
2013-03-15 21:13:00,15.4,12.0,29.69,ENE,66,8.0,8.0,86,0.00,,---,0.00,VWS V14.01,2013-03-16 05:13:00,
2013-03-15 21:14:00,15.5,12.1,29.69,ENE,74,8.0,12.0,86,0.00,,---,0.00,VWS V14.01,2013-03-16 05:14:00,
2013-03-15 21:17:00,15.5,12.1,29.69,ENE,66,10.0,11.0,86,0.00,,---,0.00,VWS V14.01,2013-03-16 05:17:00,
2013-03-15 21:19:00,15.5,12.3,29.69,East,80,7.0,12.0,87,0.00,,---,0.00,VWS V14.01,2013-03-16 05:19:00,
2013-03-15 21:22:00,15.5,12.3,29.69,ENE,61,8.0,12.0,87,0.00,,---,0.00,VWS V14.01,2013-03-16 05:22:00,
2013-03-15 21:23:00,15.5,12.3,29.69,ENE,74,6.0,12.0,87,0.00,,---,0.00,VWS V14.01,2013-03-16 05:23:00,
2013-03-15 21:24:00,15.5,12.3,29.69,East,85,7.0,12.0,87,0.00,,---,0.00,VWS V14.01,2013-03-16 05:24:00,
2013-03-15 21:27:00,15.5,12.3,29.69,East,87,5.0,11.0,87,0.00,,---,0.00,VWS V14.01,2013-03-16 05:27:00,
2013-03-15 21:28:00,15.5,12.3,29.69,East,85,4.0,11.0,87,0.00,,---,0.00,VWS V14.01,2013-03-16 05:28:00,
2013-03-15 21:29:00,15.5,12.3,29.69,ENE,67,8.0,11.0,87,0.00,,---,0.00,VWS V14.01,2013-03-16 05:29:00,
2013-03-15 21:30:00,15.6,12.4,29.69,ENE,65,8.0,11.0,87,0.00,,---,0.00,VWS V14.01,2013-03-16 05:30:00,
2013-03-15 21:33:00,15.6,12.4,29.69,East,87,7.0,11.0,87,0.00,,---,0.00,VWS V14.01,2013-03-16 05:33:00,
2013-03-15 21:34:00,15.6,12.4,29.69,East,93,8.0,12.0,87,0.00,,---,0.00,VWS V14.01,2013-03-16 05:34:00,
2013-03-15 21:35:00,15.6,12.4,29.69,East,90,8.0,12.0,87,0.00,,---,0.00,VWS V14.01,2013-03-16 05:35:00,
2013-03-15 21:38:00,15.5,12.3,29.69,East,85,5.0,7.0,87,0.00,,---,0.00,VWS V14.01,2013-03-16 05:38:00,
2013-03-15 21:39:00,15.5,12.3,29.69,East,94,6.0,8.0,87,0.00,,---,0.00,VWS V14.01,2013-03-16 05:39:00,
2013-03-15 21:40:00,15.5,12.3,29.69,East,100,5.0,8.0,87,0.00,,---,0.00,VWS V14.01,2013-03-16 05:40:00,
2013-03-15 21:43:00,15.4,12.2,29.69,East,98,5.0,6.0,87,0.00,,---,0.00,VWS V14.01,2013-03-16 05:43:00,
2013-03-15 21:44:00,15.4,12.2,29.69,East,82,5.0,8.0,87,0.00,,---,0.00,VWS V14.01,2013-03-16 05:44:00,
2013-03-15 21:45:00,15.3,12.1,29.69,East,97,6.0,9.0,87,0.00,,---,0.00,VWS V14.01,2013-03-16 05:45:00,
2013-03-15 21:48:00,15.3,12.4,29.69,East,100,6.0,7.0,88,0.00,,---,0.00,VWS V14.01,2013-03-16 05:48:00,
2013-03-15 21:49:00,15.0,11.8,29.69,ESE,123,7.0,11.0,87,0.00,,---,0.00,VWS V14.01,2013-03-16 05:49:00,
2013-03-15 21:51:00,15.0,11.8,29.69,ESE,112,6.0,11.0,87,0.00,,---,0.00,VWS V14.01,2013-03-16 05:51:00,
2013-03-15 21:53:00,15.0,11.8,29.69,ESE,117,7.0,8.0,87,0.00,,---,0.00,VWS V14.01,2013-03-16 05:53:00,
2013-03-15 21:54:00,15.0,11.8,29.69,ESE,114,7.0,9.0,87,0.00,,---,0.00,VWS V14.01,2013-03-16 05:54:00,
2013-03-15 21:57:00,15.0,11.8,29.69,SE,126,7.0,7.0,87,0.00,,---,0.00,VWS V14.01,2013-03-16 05:57:00,
2013-03-15 21:58:00,15.0,11.8,29.69,ESE,121,6.0,7.0,87,0.00,,---,0.00,VWS V14.01,2013-03-16 05:58:00,
2013-03-15 21:59:00,15.1,11.9,29.69,ESE,121,8.0,11.0,87,0.00,,---,0.00,VWS V14.01,2013-03-16 05:59:00,
2013-03-15 22:00:00,15.1,11.9,29.69,SE,129,9.0,12.0,87,0.00,,---,0.00,VWS V14.01,2013-03-16 06:00:00,
2013-03-15 22:01:00,15.2,12.0,29.69,SE,128,6.0,6.0,87,0.00,,---,0.00,VWS V14.01,2013-03-16 06:01:00,
2013-03-15 22:03:00,15.2,12.0,29.69,SE,138,7.0,13.0,87,0.00,,---,0.00,VWS V14.01,2013-03-16 06:03:00,
2013-03-15 22:04:00,15.2,12.0,29.69,ESE,103,12.0,13.0,87,0.00,,---,0.00,VWS V14.01,2013-03-16 06:04:00,
2013-03-15 22:05:00,15.2,12.0,29.69,SE,136,9.0,13.0,87,0.00,,---,0.00,VWS V14.01,2013-03-16 06:05:00,
2013-03-15 22:07:00,15.3,12.1,29.69,ESE,111,9.0,9.0,87,0.00,,---,0.00,VWS V14.01,2013-03-16 06:07:00,
2013-03-15 22:08:00,15.3,12.1,29.69,SE,133,13.0,13.0,87,0.00,,---,0.00,VWS V14.01,2013-03-16 06:08:00,
2013-03-15 22:09:00,15.3,12.1,29.69,SE,127,11.0,13.0,87,0.00,,---,0.00,VWS V14.01,2013-03-16 06:09:00,
2013-03-15 22:10:00,15.3,12.1,29.69,SE,132,12.0,14.0,87,0.00,,---,0.00,VWS V14.01,2013-03-16 06:10:00,
2013-03-15 22:12:00,15.4,12.2,29.69,SE,128,12.0,12.0,87,0.00,,---,0.00,VWS V14.01,2013-03-16 06:12:00,
2013-03-15 22:13:00,15.4,12.2,29.69,SE,128,9.0,13.0,87,0.00,,---,0.00,VWS V14.01,2013-03-16 06:13:00,
2013-03-15 22:15:00,15.4,12.2,29.69,ESE,120,8.0,14.0,87,0.00,,---,0.00,VWS V14.01,2013-03-16 06:15:00,
2013-03-15 22:17:00,15.4,12.2,29.69,SE,126,11.0,11.0,87,0.00,,---,0.00,VWS V14.01,2013-03-16 06:17:00,
2013-03-15 22:18:00,15.4,12.5,29.69,SE,135,8.0,11.0,88,0.00,,---,0.00,VWS V14.01,2013-03-16 06:18:00,
2013-03-15 22:20:00,15.4,12.5,29.69,ESE,115,8.0,11.0,88,0.00,,---,0.00,VWS V14.01,2013-03-16 06:20:00,
2013-03-15 22:22:00,15.4,12.5,29.69,ESE,110,9.0,13.0,88,0.00,,---,0.00,VWS V14.01,2013-03-16 06:22:00,
2013-03-15 22:23:00,15.4,12.5,29.69,ESE,103,11.0,12.0,88,0.00,,---,0.00,VWS V14.01,2013-03-16 06:23:00,
2013-03-15 22:25:00,15.4,12.5,29.69,East,97,8.0,12.0,88,0.00,,---,0.00,VWS V14.01,2013-03-16 06:25:00,
2013-03-15 22:27:00,15.5,12.6,29.69,ESE,102,6.0,7.0,88,0.00,,---,0.00,VWS V14.01,2013-03-16 06:27:00,
2013-03-15 22:29:00,15.5,12.6,29.69,ESE,113,11.0,13.0,88,0.00,,---,0.00,VWS V14.01,2013-03-16 06:29:00,
2013-03-15 22:31:00,15.7,12.8,29.69,SE,131,7.0,16.0,88,0.00,,---,0.00,VWS V14.01,2013-03-16 06:31:00,
2013-03-15 22:32:00,15.7,12.8,29.69,ESE,113,14.0,18.0,88,0.00,,---,0.00,VWS V14.01,2013-03-16 06:32:00,
2013-03-15 22:34:00,15.7,12.8,29.69,ESE,103,12.0,19.0,88,0.00,,---,0.00,VWS V14.01,2013-03-16 06:34:00,
2013-03-15 22:36:00,15.8,12.9,29.69,ESE,103,9.0,19.0,88,0.00,,---,0.00,VWS V14.01,2013-03-16 06:36:00,
2013-03-15 22:37:00,15.9,12.7,29.69,East,100,11.0,16.0,87,0.00,,---,0.00,VWS V14.01,2013-03-16 06:37:00,
2013-03-15 22:39:00,15.9,12.7,29.69,East,98,13.0,16.0,87,0.00,,---,0.00,VWS V14.01,2013-03-16 06:39:00,
2013-03-15 22:41:00,15.9,12.7,29.69,East,98,11.0,18.0,87,0.00,,---,0.00,VWS V14.01,2013-03-16 06:41:00,
2013-03-15 22:42:00,15.9,12.7,29.69,East,88,11.0,13.0,87,0.00,,---,0.00,VWS V14.01,2013-03-16 06:42:00,
2013-03-15 22:43:00,16.0,12.8,29.69,East,98,11.0,14.0,87,0.00,,---,0.00,VWS V14.01,2013-03-16 06:43:00,
2013-03-15 22:44:00,16.0,12.8,29.69,ESE,105,16.0,18.0,87,0.00,,---,0.00,VWS V14.01,2013-03-16 06:44:00,
2013-03-15 22:46:00,16.1,12.9,29.69,East,97,13.0,18.0,87,0.00,,---,0.00,VWS V14.01,2013-03-16 06:46:00,
2013-03-15 22:47:00,16.1,12.9,29.69,ESE,111,11.0,15.0,87,0.00,,---,0.00,VWS V14.01,2013-03-16 06:47:00,
2013-03-15 22:48:00,16.0,12.8,29.69,ESE,111,11.0,15.0,87,0.00,,---,0.00,VWS V14.01,2013-03-16 06:48:00,
2013-03-15 22:49:00,16.0,12.8,29.69,East,101,12.0,16.0,87,0.00,,---,0.00,VWS V14.01,2013-03-16 06:49:00,
2013-03-15 22:51:00,16.1,13.2,29.69,East,95,18.0,19.0,88,0.00,,---,0.00,VWS V14.01,2013-03-16 06:51:00,
2013-03-15 22:53:00,16.1,13.2,29.69,ESE,106,11.0,18.0,88,0.00,,---,0.00,VWS V14.01,2013-03-16 06:53:00,
2013-03-15 22:54:00,16.2,13.3,29.69,ESE,115,12.0,18.0,88,0.00,,---,0.00,VWS V14.01,2013-03-16 06:54:00,
2013-03-15 22:57:00,16.2,13.3,29.69,East,94,15.0,16.0,88,0.00,,---,0.00,VWS V14.01,2013-03-16 06:57:00,
2013-03-15 22:58:00,16.2,13.3,29.69,ESE,110,15.0,20.0,88,0.00,,---,0.00,VWS V14.01,2013-03-16 06:58:00,
2013-03-15 22:59:00,16.3,13.4,29.69,East,97,12.0,20.0,88,0.00,,---,0.00,VWS V14.01,2013-03-16 06:59:00,
2013-03-15 23:02:00,16.2,13.3,29.69,East,98,11.0,15.0,88,0.00,,---,0.00,VWS V14.01,2013-03-16 07:02:00,
2013-03-15 23:03:00,16.2,13.3,29.69,East,91,14.0,15.0,88,0.00,,---,0.00,VWS V14.01,2013-03-16 07:03:00,
2013-03-15 23:05:00,16.2,13.3,29.69,East,90,14.0,18.0,88,0.00,,---,0.00,VWS V14.01,2013-03-16 07:05:00,
2013-03-15 23:07:00,16.2,13.3,29.69,East,98,14.0,16.0,88,0.00,,---,0.00,VWS V14.01,2013-03-16 07:07:00,
2013-03-15 23:08:00,16.2,13.3,29.69,East,94,16.0,16.0,88,0.00,,---,0.00,VWS V14.01,2013-03-16 07:08:00,
2013-03-15 23:09:00,16.2,13.3,29.69,East,98,15.0,16.0,88,0.00,,---,0.00,VWS V14.01,2013-03-16 07:09:00,
2013-03-15 23:10:00,16.2,13.3,29.69,East,96,12.0,16.0,88,0.00,,---,0.00,VWS V14.01,2013-03-16 07:10:00,
2013-03-15 23:13:00,16.2,13.3,29.69,East,95,12.0,14.0,88,0.00,,---,0.00,VWS V14.01,2013-03-16 07:13:00,
2013-03-15 23:14:00,16.1,13.2,29.69,East,99,12.0,20.0,88,0.00,,---,0.00,VWS V14.01,2013-03-16 07:14:00,
2013-03-15 23:16:00,16.1,13.2,29.69,East,95,15.0,20.0,88,0.00,,---,0.00,VWS V14.01,2013-03-16 07:16:00,
2013-03-15 23:18:00,16.2,13.3,29.69,East,98,14.0,19.0,88,0.00,,---,0.00,VWS V14.01,2013-03-16 07:18:00,
2013-03-15 23:20:00,16.1,13.2,29.69,East,99,9.0,19.0,88,0.00,,---,0.00,VWS V14.01,2013-03-16 07:20:00,
2013-03-15 23:21:00,16.1,13.2,29.69,ESE,103,12.0,12.0,88,0.00,,---,0.00,VWS V14.01,2013-03-16 07:21:00,
2013-03-15 23:24:00,16.1,13.2,29.69,ESE,103,12.0,19.0,88,0.00,,---,0.00,VWS V14.01,2013-03-16 07:24:00,
2013-03-15 23:25:00,16.2,13.3,29.69,East,101,13.0,19.0,88,0.00,,---,0.00,VWS V14.01,2013-03-16 07:25:00,
2013-03-15 23:26:00,16.2,13.3,29.69,ESE,117,9.0,9.0,88,0.00,,---,0.00,VWS V14.01,2013-03-16 07:26:00,
2013-03-15 23:29:00,16.1,13.2,29.69,ESE,113,8.0,13.0,88,0.00,,---,0.00,VWS V14.01,2013-03-16 07:29:00,
2013-03-15 23:30:00,16.1,13.2,29.69,SE,130,8.0,13.0,88,0.00,,---,0.00,VWS V14.01,2013-03-16 07:30:00,
2013-03-15 23:32:00,16.0,13.1,29.69,SE,127,6.0,6.0,88,0.00,,---,0.00,VWS V14.01,2013-03-16 07:32:00,
2013-03-15 23:34:00,16.3,13.4,29.69,East,92,8.0,8.0,88,0.00,,---,0.00,VWS V14.01,2013-03-16 07:34:00,
2013-03-15 23:35:00,16.2,13.8,29.70,East,90,6.0,11.0,90,0.00,,---,0.00,VWS V14.01,2013-03-16 07:35:00,
2013-03-15 23:37:00,16.1,13.4,29.70,East,98,5.0,7.0,89,0.00,,---,0.00,VWS V14.01,2013-03-16 07:37:00,
2013-03-15 23:39:00,15.7,13.0,29.70,SE,125,1.0,10.0,89,0.00,,---,0.00,VWS V14.01,2013-03-16 07:39:00,
2013-03-15 23:40:00,15.6,12.7,29.70,SE,124,5.0,10.0,88,0.00,,---,0.00,VWS V14.01,2013-03-16 07:40:00,
2013-03-15 23:42:00,15.2,12.3,29.70,ESE,113,2.0,5.0,88,0.00,,---,0.00,VWS V14.01,2013-03-16 07:42:00,
2013-03-15 23:45:00,14.8,11.9,29.70,SE,124,5.0,6.0,88,0.00,,---,0.00,VWS V14.01,2013-03-16 07:45:00,
2013-03-15 23:47:00,14.5,11.6,29.70,SE,126,2.0,5.0,88,0.00,,---,0.00,VWS V14.01,2013-03-16 07:47:00,
2013-03-15 23:50:00,14.2,11.3,29.70,SE,126,4.0,6.0,88,0.00,,---,0.00,VWS V14.01,2013-03-16 07:50:00,
2013-03-15 23:52:00,14.0,11.1,29.70,SE,132,4.0,7.0,88,0.00,,---,0.00,VWS V14.01,2013-03-16 07:52:00,
2013-03-15 23:55:00,13.8,11.2,29.70,SE,132,1.0,7.0,89,0.00,,---,0.00,VWS V14.01,2013-03-16 07:55:00,
2013-03-15 23:58:00,13.6,10.7,29.70,SE,132,2.0,2.0,88,0.00,,---,0.00,VWS V14.01,2013-03-16 07:58:00,